Time,TemperatureF,DewpointF,PressureIn,WindDirection,WindDirectionDegrees,WindSpeedMPH,WindSpeedGustMPH,Humidity,HourlyPrecipIn,Conditions,Clouds,dailyrainin,SolarRadiationWatts/m^2,SoftwareType,DateUTC
2013-10-20 00:00:00,51.2,48.1,29.88,WNW,300,5.0,5.0,89,0.00,,,0.00,0,Wunderground v.1.15,2013-10-20 04:00:00,
2013-10-20 00:01:00,51.2,47.5,29.88,WNW,300,5.0,6.0,87,0.00,,,0.00,0,Wunderground v.1.15,2013-10-20 04:01:00,
2013-10-20 00:02:00,51.2,47.5,29.89,WNW,294,5.0,6.0,87,0.00,,,0.00,0,Wunderground v.1.15,2013-10-20 04:02:00,
2013-10-20 00:03:00,51.1,47.4,29.89,WNW,293,5.0,6.0,87,0.00,,,0.00,0,Wunderground v.1.15,2013-10-20 04:03:00,
2013-10-20 00:06:00,51.2,46.8,29.89,West,271,5.0,6.0,85,0.00,,,0.00,0,Wunderground v.1.15,2013-10-20 04:06:00,
2013-10-20 00:08:00,51.1,46.1,29.89,NNW,331,5.0,6.0,83,0.00,,,0.00,0,Wunderground v.1.15,2013-10-20 04:08:00,
2013-10-20 00:09:00,51.1,46.1,29.89,WNW,288,5.0,6.0,83,0.00,,,0.00,0,Wunderground v.1.15,2013-10-20 04:09:00,
2013-10-20 00:12:00,51.0,46.3,29.89,WNW,303,5.0,7.0,84,0.00,,,0.00,0,Wunderground v.1.15,2013-10-20 04:12:00,
2013-10-20 00:16:00,50.9,46.2,29.89,West,281,5.0,7.0,84,0.00,,,0.00,0,Wunderground v.1.15,2013-10-20 04:16:00,
2013-10-20 00:17:00,50.9,45.9,29.89,West,277,5.0,7.0,83,0.00,,,0.00,0,Wunderground v.1.15,2013-10-20 04:17:00,
2013-10-20 00:19:00,50.8,45.8,29.89,West,263,4.0,7.0,83,0.00,,,0.00,0,Wunderground v.1.15,2013-10-20 04:19:00,
2013-10-20 00:21:00,50.8,44.9,29.89,WNW,287,5.0,8.0,80,0.00,,,0.00,0,Wunderground v.1.15,2013-10-20 04:21:00,
2013-10-20 00:24:00,50.7,44.8,29.90,SW,231,5.0,8.0,80,0.00,,,0.00,0,Wunderground v.1.15,2013-10-20 04:24:00,
2013-10-20 00:25:00,50.6,44.7,29.90,WNW,297,5.0,8.0,80,0.00,,,0.00,0,Wunderground v.1.15,2013-10-20 04:25:00,
2013-10-20 00:26:00,50.6,44.7,29.89,SE,130,5.0,8.0,80,0.00,,,0.00,0,Wunderground v.1.15,2013-10-20 04:26:00,
2013-10-20 00:30:00,50.5,44.6,29.90,WNW,284,5.0,5.0,80,0.00,,,0.00,0,Wunderground v.1.15,2013-10-20 04:30:00,
2013-10-20 00:31:00,50.5,44.6,29.90,WNW,291,5.0,5.0,80,0.00,,,0.00,0,Wunderground v.1.15,2013-10-20 04:31:00,
2013-10-20 00:33:00,50.4,44.5,29.90,WNW,282,4.0,5.0,80,0.00,,,0.00,0,Wunderground v.1.15,2013-10-20 04:33:00,
2013-10-20 00:36:00,50.3,44.0,29.90,WNW,288,4.0,6.0,79,0.00,,,0.00,0,Wunderground v.1.15,2013-10-20 04:36:00,
2013-10-20 00:37:00,50.3,44.0,29.90,WNW,284,4.0,6.0,79,0.00,,,0.00,0,Wunderground v.1.15,2013-10-20 04:37:00,
2013-10-20 00:39:00,50.2,43.9,29.90,NNW,343,5.0,6.0,79,0.00,,,0.00,0,Wunderground v.1.15,2013-10-20 04:39:00,
2013-10-20 00:41:00,50.1,43.5,29.90,West,271,5.0,7.0,78,0.00,,,0.00,0,Wunderground v.1.15,2013-10-20 04:41:00,
2013-10-20 00:42:00,50.1,43.5,29.90,WSW,250,5.0,7.0,78,0.00,,,0.00,0,Wunderground v.1.15,2013-10-20 04:42:00,
2013-10-20 00:45:00,50.1,43.5,29.90,West,260,5.0,7.0,78,0.00,,,0.00,0,Wunderground v.1.15,2013-10-20 04:45:00,
2013-10-20 00:47:00,50.1,43.5,29.90,West,259,5.0,7.0,78,0.00,,,0.00,0,Wunderground v.1.15,2013-10-20 04:47:00,
2013-10-20 00:51:00,50.1,43.5,29.90,WSW,247,5.0,5.0,78,0.00,,,0.00,0,Wunderground v.1.15,2013-10-20 04:51:00,
2013-10-20 00:53:00,50.0,43.7,29.90,WSW,254,5.0,5.0,79,0.00,,,0.00,0,Wunderground v.1.15,2013-10-20 04:53:00,
2013-10-20 00:54:00,50.0,43.7,29.90,ESE,117,4.0,5.0,79,0.00,,,0.00,0,Wunderground v.1.15,2013-10-20 04:54:00,
2013-10-20 00:59:00,49.9,43.3,29.90,West,267,4.0,5.0,78,0.00,,,0.00,0,Wunderground v.1.15,2013-10-20 04:59:00,
2013-10-20 01:00:00,49.9,43.0,29.90,West,274,4.0,4.0,77,0.00,,,0.00,0,Wunderground v.1.15,2013-10-20 05:00:00,
2013-10-20 01:01:00,49.9,43.0,29.90,West,265,4.0,4.0,77,0.00,,,0.00,0,Wunderground v.1.15,2013-10-20 05:01:00,
2013-10-20 01:03:00,49.8,42.9,29.91,WSW,250,4.0,4.0,77,0.00,,,0.00,0,Wunderground v.1.15,2013-10-20 05:03:00,
2013-10-20 01:06:00,49.7,42.8,29.91,SE,136,4.0,6.0,77,0.00,,,0.00,0,Wunderground v.1.15,2013-10-20 05:06:00,
2013-10-20 01:07:00,49.7,42.8,29.91,SE,130,4.0,6.0,77,0.00,,,0.00,0,Wunderground v.1.15,2013-10-20 05:07:00,
2013-10-20 01:08:00,49.7,42.8,29.91,WSW,245,4.0,6.0,77,0.00,,,0.00,0,Wunderground v.1.15,2013-10-20 05:08:00,
2013-10-20 01:10:00,49.6,42.7,29.91,WNW,286,3.0,3.0,77,0.00,,,0.00,0,Wunderground v.1.15,2013-10-20 05:10:00,
2013-10-20 01:14:00,49.4,42.8,29.91,WNW,300,2.0,3.0,78,0.00,,,0.00,0,Wunderground v.1.15,2013-10-20 05:14:00,
2013-10-20 01:16:00,49.4,42.1,29.91,NW,313,2.0,6.0,76,0.00,,,0.00,0,Wunderground v.1.15,2013-10-20 05:16:00,
2013-10-20 01:18:00,49.3,42.1,29.91,NNW,329,3.0,6.0,76,0.00,,,0.00,0,Wunderground v.1.15,2013-10-20 05:18:00,
2013-10-20 01:21:00,49.2,42.3,29.91,WSW,252,3.0,5.0,77,0.00,,,0.00,0,Wunderground v.1.15,2013-10-20 05:21:00,
2013-10-20 01:22:00,49.2,41.6,29.91,WNW,291,3.0,5.0,75,0.00,,,0.00,0,Wunderground v.1.15,2013-10-20 05:22:00,
2013-10-20 01:24:00,49.2,41.6,29.91,WNW,293,4.0,5.0,75,0.00,,,0.00,0,Wunderground v.1.15,2013-10-20 05:24:00,
2013-10-20 01:30:00,49.1,41.5,29.92,NW,313,5.0,8.0,75,0.00,,,0.00,0,Wunderground v.1.15,2013-10-20 05:30:00,
2013-10-20 01:31:00,49.1,41.5,29.92,NW,318,5.0,8.0,75,0.00,,,0.00,0,Wunderground v.1.15,2013-10-20 05:31:00,
2013-10-20 01:33:00,49.0,41.1,29.92,WNW,294,5.0,8.0,74,0.00,,,0.00,0,Wunderground v.1.15,2013-10-20 05:33:00,
2013-10-20 01:34:00,48.9,41.3,29.92,NW,310,5.0,8.0,75,0.00,,,0.00,0,Wunderground v.1.15,2013-10-20 05:34:00,
2013-10-20 01:35:00,48.9,41.0,29.92,NW,312,5.0,8.0,74,0.00,,,0.00,0,Wunderground v.1.15,2013-10-20 05:35:00,
2013-10-20 01:37:00,48.9,41.0,29.92,WNW,287,5.0,8.0,74,0.00,,,0.00,0,Wunderground v.1.15,2013-10-20 05:37:00,
2013-10-20 01:38:00,48.9,41.3,29.92,WNW,292,5.0,8.0,75,0.00,,,0.00,0,Wunderground v.1.15,2013-10-20 05:38:00,
2013-10-20 01:40:00,48.8,41.2,29.92,WNW,303,5.0,5.0,75,0.00,,,0.00,0,Wunderground v.1.15,2013-10-20 05:40:00,
2013-10-20 01:41:00,48.8,41.2,29.92,WNW,294,5.0,8.0,75,0.00,,,0.00,0,Wunderground v.1.15,2013-10-20 05:41:00,
2013-10-20 01:42:00,48.8,40.9,29.92,NW,304,5.0,8.0,74,0.00,,,0.00,0,Wunderground v.1.15,2013-10-20 05:42:00,
2013-10-20 01:44:00,48.8,40.9,29.92,NNW,344,5.0,8.0,74,0.00,,,0.00,0,Wunderground v.1.15,2013-10-20 05:44:00,
2013-10-20 01:47:00,48.8,40.9,29.92,WNW,285,5.0,8.0,74,0.00,,,0.00,0,Wunderground v.1.15,2013-10-20 05:47:00,
2013-10-20 01:48:00,48.7,40.8,29.92,WNW,301,5.0,8.0,74,0.00,,,0.00,0,Wunderground v.1.15,2013-10-20 05:48:00,
2013-10-20 01:49:00,48.7,40.8,29.92,West,281,5.0,8.0,74,0.00,,,0.00,0,Wunderground v.1.15,2013-10-20 05:49:00,
2013-10-20 01:50:00,48.7,40.8,29.92,West,281,5.0,5.0,74,0.00,,,0.00,0,Wunderground v.1.15,2013-10-20 05:50:00,
2013-10-20 01:51:00,48.7,40.8,29.92,SSW,208,5.0,6.0,74,0.00,,,0.00,0,Wunderground v.1.15,2013-10-20 05:51:00,
2013-10-20 01:53:00,48.6,40.7,29.92,WNW,299,5.0,9.0,74,0.00,,,0.00,0,Wunderground v.1.15,2013-10-20 05:53:00,
2013-10-20 01:54:00,48.7,40.8,29.92,WNW,286,5.0,9.0,74,0.00,,,0.00,0,Wunderground v.1.15,2013-10-20 05:54:00,
2013-10-20 01:57:00,48.7,40.8,29.92,NW,311,5.0,9.0,74,0.00,,,0.00,0,Wunderground v.1.15,2013-10-20 05:57:00,
2013-10-20 01:58:00,48.7,40.8,29.92,WNW,300,5.0,9.0,74,0.00,,,0.00,0,Wunderground v.1.15,2013-10-20 05:58:00,
2013-10-20 02:00:00,48.6,40.7,29.92,West,273,5.0,5.0,74,0.00,,,0.00,0,Wunderground v.1.15,2013-10-20 06:00:00,
2013-10-20 02:01:00,48.6,40.7,29.93,NW,310,4.0,5.0,74,0.00,,,0.00,0,Wunderground v.1.15,2013-10-20 06:01:00,
2013-10-20 02:03:00,48.5,40.6,29.92,West,277,4.0,5.0,74,0.00,,,0.00,0,Wunderground v.1.15,2013-10-20 06:03:00,
2013-10-20 02:04:00,48.5,40.9,29.92,WNW,286,4.0,5.0,75,0.00,,,0.00,0,Wunderground v.1.15,2013-10-20 06:04:00,
2013-10-20 02:06:00,48.4,40.5,29.93,WNW,296,4.0,6.0,74,0.00,,,0.00,0,Wunderground v.1.15,2013-10-20 06:06:00,
2013-10-20 02:08:00,48.4,40.8,29.93,WNW,301,3.0,6.0,75,0.00,,,0.00,0,Wunderground v.1.15,2013-10-20 06:08:00,
2013-10-20 02:10:00,48.3,40.7,29.93,WSW,250,4.0,5.0,75,0.00,,,0.00,0,Wunderground v.1.15,2013-10-20 06:10:00,
2013-10-20 02:11:00,48.2,40.6,29.93,West,263,4.0,5.0,75,0.00,,,0.00,0,Wunderground v.1.15,2013-10-20 06:11:00,
2013-10-20 02:12:00,48.2,40.6,29.93,NW,312,4.0,5.0,75,0.00,,,0.00,0,Wunderground v.1.15,2013-10-20 06:12:00,
2013-10-20 02:13:00,48.2,40.6,29.93,NNW,348,4.0,5.0,75,0.00,,,0.00,0,Wunderground v.1.15,2013-10-20 06:13:00,
2013-10-20 02:17:00,48.0,40.5,29.93,NW,309,4.0,5.0,75,0.00,,,0.00,0,Wunderground v.1.15,2013-10-20 06:17:00,
2013-10-20 02:19:00,47.9,40.4,29.93,West,271,4.0,5.0,75,0.00,,,0.00,0,Wunderground v.1.15,2013-10-20 06:19:00,
2013-10-20 02:22:00,47.9,40.4,29.93,West,262,4.0,5.0,75,0.00,,,0.00,0,Wunderground v.1.15,2013-10-20 06:22:00,
2013-10-20 02:24:00,47.8,40.3,29.93,West,270,4.0,5.0,75,0.00,,,0.00,0,Wunderground v.1.15,2013-10-20 06:24:00,
2013-10-20 02:25:00,47.8,40.6,29.93,WNW,290,4.0,5.0,76,0.00,,,0.00,0,Wunderground v.1.15,2013-10-20 06:25:00,
2013-10-20 02:27:00,47.7,40.5,29.93,NW,326,4.0,5.0,76,0.00,,,0.00,0,Wunderground v.1.15,2013-10-20 06:27:00,
2013-10-20 02:28:00,47.7,40.5,29.93,NW,315,4.0,5.0,76,0.00,,,0.00,0,Wunderground v.1.15,2013-10-20 06:28:00,
2013-10-20 02:30:00,47.6,40.4,29.93,NW,306,4.0,5.0,76,0.00,,,0.00,0,Wunderground v.1.15,2013-10-20 06:30:00,
2013-10-20 02:31:00,47.6,40.4,29.93,WNW,294,4.0,5.0,76,0.00,,,0.00,0,Wunderground v.1.15,2013-10-20 06:31:00,
2013-10-20 02:32:00,47.6,40.4,29.93,NW,319,4.0,5.0,76,0.00,,,0.00,0,Wunderground v.1.15,2013-10-20 06:32:00,
2013-10-20 02:33:00,47.6,40.4,29.93,WNW,288,4.0,5.0,76,0.00,,,0.00,0,Wunderground v.1.15,2013-10-20 06:33:00,
2013-10-20 02:35:00,47.6,40.4,29.93,WNW,294,4.0,5.0,76,0.00,,,0.00,0,Wunderground v.1.15,2013-10-20 06:35:00,
2013-10-20 02:39:00,47.5,40.3,29.93,WNW,290,3.0,5.0,76,0.00,,,0.00,0,Wunderground v.1.15,2013-10-20 06:39:00,
2013-10-20 02:40:00,47.4,40.6,29.93,West,260,3.0,5.0,77,0.00,,,0.00,0,Wunderground v.1.15,2013-10-20 06:40:00,
2013-10-20 02:41:00,47.4,40.6,29.93,West,278,3.0,3.0,77,0.00,,,0.00,0,Wunderground v.1.15,2013-10-20 06:41:00,
2013-10-20 02:43:00,47.3,40.5,29.93,NW,314,2.0,5.0,77,0.00,,,0.00,0,Wunderground v.1.15,2013-10-20 06:43:00,
2013-10-20 02:45:00,47.2,40.4,29.94,NW,306,2.0,5.0,77,0.00,,,0.00,0,Wunderground v.1.15,2013-10-20 06:45:00,
2013-10-20 02:46:00,47.3,40.5,29.94,WSW,258,2.0,5.0,77,0.00,,,0.00,0,Wunderground v.1.15,2013-10-20 06:46:00,
2013-10-20 02:47:00,47.2,40.4,29.94,West,277,2.0,5.0,77,0.00,,,0.00,0,Wunderground v.1.15,2013-10-20 06:47:00,
2013-10-20 02:50:00,47.1,40.6,29.94,WNW,294,2.0,5.0,78,0.00,,,0.00,0,Wunderground v.1.15,2013-10-20 06:50:00,
2013-10-20 02:52:00,47.0,40.5,29.94,West,276,2.0,4.0,78,0.00,,,0.00,0,Wunderground v.1.15,2013-10-20 06:52:00,
2013-10-20 02:54:00,47.0,40.5,29.94,West,275,2.0,4.0,78,0.00,,,0.00,0,Wunderground v.1.15,2013-10-20 06:54:00,
2013-10-20 02:55:00,47.0,40.5,29.94,WNW,292,2.0,4.0,78,0.00,,,0.00,0,Wunderground v.1.15,2013-10-20 06:55:00,
2013-10-20 02:56:00,46.9,40.4,29.94,WSW,254,2.0,4.0,78,0.00,,,0.00,0,Wunderground v.1.15,2013-10-20 06:56:00,
2013-10-20 02:58:00,46.9,40.7,29.94,West,274,2.0,5.0,79,0.00,,,0.00,0,Wunderground v.1.15,2013-10-20 06:58:00,
2013-10-20 02:59:00,46.9,40.7,29.94,NW,306,2.0,5.0,79,0.00,,,0.00,0,Wunderground v.1.15,2013-10-20 06:59:00,
2013-10-20 03:00:00,46.9,40.7,29.94,West,273,3.0,3.0,79,0.00,,,0.00,0,Wunderground v.1.15,2013-10-20 07:00:00,
2013-10-20 03:01:00,46.8,40.6,29.94,WNW,284,3.0,5.0,79,0.00,,,0.00,0,Wunderground v.1.15,2013-10-20 07:01:00,
2013-10-20 03:02:00,46.8,40.6,29.94,NW,316,3.0,5.0,79,0.00,,,0.00,0,Wunderground v.1.15,2013-10-20 07:02:00,
2013-10-20 03:04:00,46.8,40.6,29.94,WNW,290,2.0,5.0,79,0.00,,,0.00,0,Wunderground v.1.15,2013-10-20 07:04:00,
2013-10-20 03:07:00,46.8,40.6,29.94,West,268,3.0,5.0,79,0.00,,,0.00,0,Wunderground v.1.15,2013-10-20 07:07:00,
2013-10-20 03:08:00,46.8,40.6,29.94,West,281,3.0,5.0,79,0.00,,,0.00,0,Wunderground v.1.15,2013-10-20 07:08:00,
2013-10-20 03:11:00,46.8,40.6,29.94,WNW,296,3.0,3.0,79,0.00,,,0.00,0,Wunderground v.1.15,2013-10-20 07:11:00,
2013-10-20 03:12:00,46.8,40.6,29.94,NNW,333,3.0,3.0,79,0.00,,,0.00,0,Wunderground v.1.15,2013-10-20 07:12:00,
2013-10-20 03:13:00,46.8,40.6,29.94,WNW,296,3.0,4.0,79,0.00,,,0.00,0,Wunderground v.1.15,2013-10-20 07:13:00,
2013-10-20 03:15:00,46.7,40.5,29.94,WNW,296,3.0,4.0,79,0.00,,,0.00,0,Wunderground v.1.15,2013-10-20 07:15:00,
2013-10-20 03:17:00,46.7,40.5,29.94,WSW,255,3.0,5.0,79,0.00,,,0.00,0,Wunderground v.1.15,2013-10-20 07:17:00,
2013-10-20 03:19:00,46.7,40.5,29.94,NW,314,3.0,5.0,79,0.00,,,0.00,0,Wunderground v.1.15,2013-10-20 07:19:00,
2013-10-20 03:20:00,46.7,40.5,29.94,WNW,298,3.0,5.0,79,0.00,,,0.00,0,Wunderground v.1.15,2013-10-20 07:20:00,
2013-10-20 03:22:00,46.7,40.5,29.94,NW,324,3.0,5.0,79,0.00,,,0.00,0,Wunderground v.1.15,2013-10-20 07:22:00,
2013-10-20 03:25:00,46.6,40.4,29.94,West,272,3.0,5.0,79,0.00,,,0.00,0,Wunderground v.1.15,2013-10-20 07:25:00,
2013-10-20 03:26:00,46.6,40.4,29.94,WNW,294,3.0,5.0,79,0.00,,,0.00,0,Wunderground v.1.15,2013-10-20 07:26:00,
2013-10-20 03:27:00,46.6,40.4,29.94,WNW,282,3.0,5.0,79,0.00,,,0.00,0,Wunderground v.1.15,2013-10-20 07:27:00,
2013-10-20 03:31:00,46.5,40.3,29.94,WSW,240,2.0,2.0,79,0.00,,,0.00,0,Wunderground v.1.15,2013-10-20 07:31:00,
2013-10-20 03:32:00,46.5,40.3,29.94,SSE,164,2.0,2.0,79,0.00,,,0.00,0,Wunderground v.1.15,2013-10-20 07:32:00,
2013-10-20 03:35:00,46.5,40.3,29.95,SW,233,2.0,3.0,79,0.00,,,0.00,0,Wunderground v.1.15,2013-10-20 07:35:00,
2013-10-20 03:37:00,46.5,40.3,29.94,West,273,1.0,3.0,79,0.00,,,0.00,0,Wunderground v.1.15,2013-10-20 07:37:00,
2013-10-20 03:38:00,46.5,40.3,29.94,NNE,31,1.0,3.0,79,0.00,,,0.00,0,Wunderground v.1.15,2013-10-20 07:38:00,
2013-10-20 03:40:00,46.4,40.2,29.95,West,270,1.0,1.0,79,0.00,,,0.00,0,Wunderground v.1.15,2013-10-20 07:40:00,
2013-10-20 03:42:00,46.4,40.6,29.95,West,263,1.0,1.0,80,0.00,,,0.00,0,Wunderground v.1.15,2013-10-20 07:42:00,
2013-10-20 03:43:00,46.4,40.6,29.95,West,259,1.0,1.0,80,0.00,,,0.00,0,Wunderground v.1.15,2013-10-20 07:43:00,
2013-10-20 03:45:00,46.4,40.6,29.95,West,260,1.0,1.0,80,0.00,,,0.00,0,Wunderground v.1.15,2013-10-20 07:45:00,
2013-10-20 03:47:00,46.3,40.5,29.95,WNW,286,1.0,2.0,80,0.00,,,0.00,0,Wunderground v.1.15,2013-10-20 07:47:00,
2013-10-20 03:51:00,46.3,40.5,29.95,SE,130,1.0,1.0,80,0.00,,,0.00,0,Wunderground v.1.15,2013-10-20 07:51:00,
2013-10-20 03:52:00,46.3,40.5,29.95,West,267,1.0,2.0,80,0.00,,,0.00,0,Wunderground v.1.15,2013-10-20 07:52:00,
2013-10-20 03:53:00,46.3,40.5,29.95,NW,306,1.0,2.0,80,0.00,,,0.00,0,Wunderground v.1.15,2013-10-20 07:53:00,
2013-10-20 03:54:00,46.3,40.8,29.95,SSE,154,1.0,2.0,81,0.00,,,0.00,0,Wunderground v.1.15,2013-10-20 07:54:00,
2013-10-20 03:57:00,46.2,40.4,29.95,SE,139,1.0,2.0,80,0.00,,,0.00,0,Wunderground v.1.15,2013-10-20 07:57:00,
2013-10-20 04:00:00,46.2,40.4,29.95,SW,221,1.0,1.0,80,0.00,,,0.00,0,Wunderground v.1.15,2013-10-20 08:00:00,
2013-10-20 04:01:00,46.2,40.4,29.95,SE,130,1.0,2.0,80,0.00,,,0.00,0,Wunderground v.1.15,2013-10-20 08:01:00,
2013-10-20 04:05:00,46.2,40.4,29.95,SSE,154,2.0,4.0,80,0.00,,,0.00,0,Wunderground v.1.15,2013-10-20 08:05:00,
2013-10-20 04:06:00,46.2,40.4,29.95,ESE,121,2.0,4.0,80,0.00,,,0.00,0,Wunderground v.1.15,2013-10-20 08:06:00,
2013-10-20 04:07:00,46.2,40.4,29.95,ESE,123,2.0,4.0,80,0.00,,,0.00,0,Wunderground v.1.15,2013-10-20 08:07:00,
2013-10-20 04:11:00,46.2,40.4,29.95,WNW,284,2.0,3.0,80,0.00,,,0.00,0,Wunderground v.1.15,2013-10-20 08:11:00,
2013-10-20 04:13:00,46.2,40.4,29.95,WSW,251,2.0,3.0,80,0.00,,,0.00,0,Wunderground v.1.15,2013-10-20 08:13:00,
2013-10-20 04:14:00,46.2,40.4,29.95,West,261,2.0,3.0,80,0.00,,,0.00,0,Wunderground v.1.15,2013-10-20 08:14:00,
2013-10-20 04:16:00,46.2,40.4,29.95,WSW,254,1.0,3.0,80,0.00,,,0.00,0,Wunderground v.1.15,2013-10-20 08:16:00,
2013-10-20 04:18:00,46.2,40.4,29.95,West,261,1.0,3.0,80,0.00,,,0.00,0,Wunderground v.1.15,2013-10-20 08:18:00,
2013-10-20 04:19:00,46.2,40.4,29.95,West,277,1.0,3.0,80,0.00,,,0.00,0,Wunderground v.1.15,2013-10-20 08:19:00,
2013-10-20 04:22:00,46.2,40.4,29.96,West,277,1.0,2.0,80,0.00,,,0.00,0,Wunderground v.1.15,2013-10-20 08:22:00,
2013-10-20 04:24:00,46.2,40.4,29.96,WNW,300,1.0,2.0,80,0.00,,,0.00,0,Wunderground v.1.15,2013-10-20 08:24:00,
2013-10-20 04:27:00,46.2,40.4,29.96,WSW,252,2.0,2.0,80,0.00,,,0.00,0,Wunderground v.1.15,2013-10-20 08:27:00,
2013-10-20 04:28:00,46.3,40.5,29.96,WSW,247,2.0,2.0,80,0.00,,,0.00,0,Wunderground v.1.15,2013-10-20 08:28:00,
2013-10-20 04:29:00,46.3,40.5,29.96,WSW,250,2.0,2.0,80,0.00,,,0.00,0,Wunderground v.1.15,2013-10-20 08:29:00,
2013-10-20 04:30:00,46.3,40.5,29.96,WNW,284,2.0,2.0,80,0.00,,,0.00,0,Wunderground v.1.15,2013-10-20 08:30:00,
2013-10-20 04:34:00,46.3,40.5,29.96,NW,304,2.0,4.0,80,0.00,,,0.00,0,Wunderground v.1.15,2013-10-20 08:34:00,
2013-10-20 04:35:00,46.3,40.5,29.96,West,275,2.0,4.0,80,0.00,,,0.00,0,Wunderground v.1.15,2013-10-20 08:35:00,
2013-10-20 04:36:00,46.3,40.5,29.96,WNW,296,2.0,4.0,80,0.00,,,0.00,0,Wunderground v.1.15,2013-10-20 08:36:00,
2013-10-20 04:37:00,46.3,40.5,29.96,WNW,299,2.0,4.0,80,0.00,,,0.00,0,Wunderground v.1.15,2013-10-20 08:37:00,
2013-10-20 04:38:00,46.3,40.5,29.96,WNW,290,2.0,4.0,80,0.00,,,0.00,0,Wunderground v.1.15,2013-10-20 08:38:00,
2013-10-20 04:42:00,46.3,40.5,29.97,WNW,292,2.0,2.0,80,0.00,,,0.00,0,Wunderground v.1.15,2013-10-20 08:42:00,
2013-10-20 04:44:00,46.3,40.5,29.97,WNW,282,2.0,2.0,80,0.00,,,0.00,0,Wunderground v.1.15,2013-10-20 08:44:00,
2013-10-20 04:48:00,46.3,40.5,29.97,NW,313,2.0,2.0,80,0.00,,,0.00,0,Wunderground v.1.15,2013-10-20 08:48:00,
2013-10-20 04:49:00,46.3,40.5,29.97,WNW,293,2.0,2.0,80,0.00,,,0.00,0,Wunderground v.1.15,2013-10-20 08:49:00,
2013-10-20 04:50:00,46.3,40.5,29.97,West,275,2.0,4.0,80,0.00,,,0.00,0,Wunderground v.1.15,2013-10-20 08:50:00,
2013-10-20 04:51:00,46.3,40.5,29.97,WNW,290,2.0,4.0,80,0.00,,,0.00,0,Wunderground v.1.15,2013-10-20 08:51:00,
2013-10-20 04:52:00,46.4,40.6,29.97,WNW,296,2.0,4.0,80,0.00,,,0.00,0,Wunderground v.1.15,2013-10-20 08:52:00,
2013-10-20 04:53:00,46.4,40.6,29.97,WNW,288,2.0,4.0,80,0.00,,,0.00,0,Wunderground v.1.15,2013-10-20 08:53:00,
2013-10-20 04:55:00,46.4,40.6,29.97,WNW,292,2.0,4.0,80,0.00,,,0.00,0,Wunderground v.1.15,2013-10-20 08:55:00,
2013-10-20 04:56:00,46.5,40.7,29.97,West,271,2.0,4.0,80,0.00,,,0.00,0,Wunderground v.1.15,2013-10-20 08:56:00,
2013-10-20 04:58:00,46.5,40.3,29.97,North,350,2.0,2.0,79,0.00,,,0.00,0,Wunderground v.1.15,2013-10-20 08:58:00,
2013-10-20 04:59:00,46.5,40.3,29.97,WNW,297,2.0,2.0,79,0.00,,,0.00,0,Wunderground v.1.15,2013-10-20 08:59:00,
2013-10-20 05:02:00,46.5,40.3,29.97,WSW,255,2.0,5.0,79,0.00,,,0.00,0,Wunderground v.1.15,2013-10-20 09:02:00,
2013-10-20 05:04:00,46.5,40.3,29.97,West,268,2.0,5.0,79,0.00,,,0.00,0,Wunderground v.1.15,2013-10-20 09:04:00,
2013-10-20 05:05:00,46.5,40.3,29.97,NNW,336,2.0,5.0,79,0.00,,,0.00,0,Wunderground v.1.15,2013-10-20 09:05:00,
2013-10-20 05:09:00,46.5,40.3,29.97,SSW,209,2.0,5.0,79,0.00,,,0.00,0,Wunderground v.1.15,2013-10-20 09:09:00,
2013-10-20 05:10:00,46.5,40.3,29.97,WSW,251,2.0,4.0,79,0.00,,,0.00,0,Wunderground v.1.15,2013-10-20 09:10:00,
2013-10-20 05:11:00,46.5,40.3,29.97,West,273,2.0,4.0,79,0.00,,,0.00,0,Wunderground v.1.15,2013-10-20 09:11:00,
2013-10-20 05:15:00,46.4,40.2,29.97,WSW,252,2.0,4.0,79,0.00,,,0.00,0,Wunderground v.1.15,2013-10-20 09:15:00,
2013-10-20 05:17:00,46.4,40.2,29.98,SW,230,2.0,4.0,79,0.00,,,0.00,0,Wunderground v.1.15,2013-10-20 09:17:00,
2013-10-20 05:18:00,46.4,40.2,29.97,WNW,299,2.0,4.0,79,0.00,,,0.00,0,Wunderground v.1.15,2013-10-20 09:18:00,
2013-10-20 05:19:00,46.4,40.2,29.97,WNW,286,2.0,4.0,79,0.00,,,0.00,0,Wunderground v.1.15,2013-10-20 09:19:00,
2013-10-20 05:22:00,46.3,40.1,29.97,West,262,2.0,3.0,79,0.00,,,0.00,0,Wunderground v.1.15,2013-10-20 09:22:00,
2013-10-20 05:23:00,46.2,40.0,29.97,SW,223,2.0,3.0,79,0.00,,,0.00,0,Wunderground v.1.15,2013-10-20 09:23:00,
2013-10-20 05:24:00,46.2,40.0,29.97,WSW,248,1.0,3.0,79,0.00,,,0.00,0,Wunderground v.1.15,2013-10-20 09:24:00,
2013-10-20 05:25:00,46.2,40.0,29.97,SW,226,1.0,3.0,79,0.00,,,0.00,0,Wunderground v.1.15,2013-10-20 09:25:00,
2013-10-20 05:26:00,46.2,40.0,29.97,NW,321,2.0,3.0,79,0.00,,,0.00,0,Wunderground v.1.15,2013-10-20 09:26:00,
2013-10-20 05:29:00,46.1,39.9,29.97,West,260,1.0,3.0,79,0.00,,,0.00,0,Wunderground v.1.15,2013-10-20 09:29:00,
2013-10-20 05:30:00,46.1,39.9,29.97,WSW,258,1.0,2.0,79,0.00,,,0.00,0,Wunderground v.1.15,2013-10-20 09:30:00,
2013-10-20 05:31:00,46.0,39.9,29.97,NW,309,1.0,3.0,79,0.00,,,0.00,0,Wunderground v.1.15,2013-10-20 09:31:00,
2013-10-20 05:32:00,46.0,39.9,29.98,WSW,254,1.0,3.0,79,0.00,,,0.00,0,Wunderground v.1.15,2013-10-20 09:32:00,
2013-10-20 05:36:00,45.9,40.1,29.98,WSW,257,2.0,4.0,80,0.00,,,0.00,0,Wunderground v.1.15,2013-10-20 09:36:00,
2013-10-20 05:38:00,45.8,40.0,29.98,WNW,297,2.0,5.0,80,0.00,,,0.00,0,Wunderground v.1.15,2013-10-20 09:38:00,
2013-10-20 05:41:00,45.8,40.0,29.98,West,271,2.0,3.0,80,0.00,,,0.00,0,Wunderground v.1.15,2013-10-20 09:41:00,
2013-10-20 05:42:00,45.7,39.9,29.98,West,260,2.0,3.0,80,0.00,,,0.00,0,Wunderground v.1.15,2013-10-20 09:42:00,
2013-10-20 05:45:00,45.6,39.8,29.98,West,272,2.0,3.0,80,0.00,,,0.00,0,Wunderground v.1.15,2013-10-20 09:45:00,
2013-10-20 05:47:00,45.6,39.8,29.98,SE,135,2.0,3.0,80,0.00,,,0.00,0,Wunderground v.1.15,2013-10-20 09:47:00,
2013-10-20 05:48:00,45.6,39.8,29.98,West,265,2.0,3.0,80,0.00,,,0.00,0,Wunderground v.1.15,2013-10-20 09:48:00,
2013-10-20 05:49:00,45.5,39.7,29.98,ESE,111,2.0,3.0,80,0.00,,,0.00,0,Wunderground v.1.15,2013-10-20 09:49:00,
2013-10-20 05:51:00,45.5,39.7,29.98,WNW,288,2.0,2.0,80,0.00,,,0.00,0,Wunderground v.1.15,2013-10-20 09:51:00,
2013-10-20 05:54:00,45.3,39.8,29.98,West,275,2.0,2.0,81,0.00,,,0.00,0,Wunderground v.1.15,2013-10-20 09:54:00,
2013-10-20 05:56:00,45.3,39.8,29.98,NNW,327,2.0,2.0,81,0.00,,,0.00,0,Wunderground v.1.15,2013-10-20 09:56:00,
2013-10-20 05:57:00,45.2,39.7,29.98,ESE,117,2.0,3.0,81,0.00,,,0.00,0,Wunderground v.1.15,2013-10-20 09:57:00,
2013-10-20 05:58:00,45.2,39.7,29.98,ESE,109,2.0,3.0,81,0.00,,,0.00,0,Wunderground v.1.15,2013-10-20 09:58:00,
2013-10-20 06:01:00,45.1,39.6,29.98,West,281,2.0,3.0,81,0.00,,,0.00,0,Wunderground v.1.15,2013-10-20 10:01:00,
2013-10-20 06:02:00,45.0,39.5,29.99,WNW,294,2.0,3.0,81,0.00,,,0.00,0,Wunderground v.1.15,2013-10-20 10:02:00,
2013-10-20 06:03:00,45.0,39.5,29.99,West,273,2.0,4.0,81,0.00,,,0.00,0,Wunderground v.1.15,2013-10-20 10:03:00,
2013-10-20 06:04:00,45.0,39.5,29.99,West,273,2.0,4.0,81,0.00,,,0.00,0,Wunderground v.1.15,2013-10-20 10:04:00,
2013-10-20 06:06:00,44.9,39.4,29.99,WNW,300,2.0,5.0,81,0.00,,,0.00,0,Wunderground v.1.15,2013-10-20 10:06:00,
2013-10-20 06:07:00,44.8,39.3,29.99,West,273,2.0,5.0,81,0.00,,,0.00,0,Wunderground v.1.15,2013-10-20 10:07:00,
2013-10-20 06:08:00,44.8,39.6,29.99,WNW,291,2.0,5.0,82,0.00,,,0.00,0,Wunderground v.1.15,2013-10-20 10:08:00,
2013-10-20 06:11:00,44.7,39.5,29.99,WNW,289,2.0,2.0,82,0.00,,,0.00,0,Wunderground v.1.15,2013-10-20 10:11:00,
2013-10-20 06:12:00,44.6,39.4,29.99,ESE,120,2.0,2.0,82,0.00,,,0.00,0,Wunderground v.1.15,2013-10-20 10:12:00,
2013-10-20 06:13:00,44.6,39.4,29.99,WNW,291,2.0,2.0,82,0.00,,,0.00,0,Wunderground v.1.15,2013-10-20 10:13:00,
2013-10-20 06:15:00,44.5,39.3,29.99,West,262,2.0,2.0,82,0.00,,,0.00,0,Wunderground v.1.15,2013-10-20 10:15:00,
2013-10-20 06:17:00,44.5,39.3,29.99,WSW,256,2.0,2.0,82,0.00,,,0.00,0,Wunderground v.1.15,2013-10-20 10:17:00,
2013-10-20 06:18:00,44.5,39.3,29.99,WNW,285,2.0,2.0,82,0.00,,,0.00,0,Wunderground v.1.15,2013-10-20 10:18:00,
2013-10-20 06:20:00,44.5,39.3,30.00,West,269,1.0,2.0,82,0.00,,,0.00,0,Wunderground v.1.15,2013-10-20 10:20:00,
2013-10-20 06:21:00,44.4,39.2,30.00,SW,221,1.0,2.0,82,0.00,,,0.00,0,Wunderground v.1.15,2013-10-20 10:21:00,
2013-10-20 06:22:00,44.4,39.2,30.00,West,264,1.0,2.0,82,0.00,,,0.00,0,Wunderground v.1.15,2013-10-20 10:22:00,
2013-10-20 06:23:00,44.4,39.2,30.00,West,273,1.0,2.0,82,0.00,,,0.00,0,Wunderground v.1.15,2013-10-20 10:23:00,
2013-10-20 06:25:00,44.4,39.2,30.00,West,263,2.0,4.0,82,0.00,,,0.00,0,Wunderground v.1.15,2013-10-20 10:25:00,
2013-10-20 06:28:00,44.4,39.2,30.00,West,265,2.0,5.0,82,0.00,,,0.00,0,Wunderground v.1.15,2013-10-20 10:28:00,
2013-10-20 06:30:00,44.4,39.2,30.00,South,185,2.0,2.0,82,0.00,,,0.00,0,Wunderground v.1.15,2013-10-20 10:30:00,
2013-10-20 06:31:00,44.3,39.2,30.00,ESE,118,2.0,2.0,82,0.00,,,0.00,0,Wunderground v.1.15,2013-10-20 10:31:00,
2013-10-20 06:32:00,44.3,39.2,30.00,West,275,2.0,5.0,82,0.00,,,0.00,0,Wunderground v.1.15,2013-10-20 10:32:00,
2013-10-20 06:36:00,44.4,38.9,30.00,WSW,248,3.0,5.0,81,0.00,,,0.00,0,Wunderground v.1.15,2013-10-20 10:36:00,
2013-10-20 06:37:00,44.4,38.9,30.00,WNW,286,3.0,5.0,81,0.00,,,0.00,0,Wunderground v.1.15,2013-10-20 10:37:00,
2013-10-20 06:38:00,44.3,38.8,30.00,WNW,299,3.0,5.0,81,0.00,,,0.00,0,Wunderground v.1.15,2013-10-20 10:38:00,
2013-10-20 06:40:00,44.4,38.9,30.00,WSW,248,3.0,3.0,81,0.00,,,0.00,0,Wunderground v.1.15,2013-10-20 10:40:00,
2013-10-20 06:43:00,44.3,38.8,30.00,WSW,242,2.0,3.0,81,0.00,,,0.00,0,Wunderground v.1.15,2013-10-20 10:43:00,
2013-10-20 06:44:00,44.3,38.8,30.00,South,190,2.0,3.0,81,0.00,,,0.00,0,Wunderground v.1.15,2013-10-20 10:44:00,
2013-10-20 06:46:00,44.3,38.8,30.00,WSW,246,2.0,3.0,81,0.00,,,0.00,0,Wunderground v.1.15,2013-10-20 10:46:00,
2013-10-20 06:47:00,44.3,38.8,30.00,West,265,2.0,3.0,81,0.00,,,0.00,0,Wunderground v.1.15,2013-10-20 10:47:00,
2013-10-20 06:48:00,44.3,38.8,30.00,WSW,251,2.0,3.0,81,0.00,,,0.00,0,Wunderground v.1.15,2013-10-20 10:48:00,
2013-10-20 06:51:00,44.2,38.7,30.00,WSW,250,2.0,2.0,81,0.00,,,0.00,0,Wunderground v.1.15,2013-10-20 10:51:00,
2013-10-20 06:53:00,44.2,38.7,30.01,WNW,288,2.0,2.0,81,0.00,,,0.00,0,Wunderground v.1.15,2013-10-20 10:53:00,
2013-10-20 06:54:00,44.2,38.7,30.01,West,262,1.0,2.0,81,0.00,,,0.00,0,Wunderground v.1.15,2013-10-20 10:54:00,
2013-10-20 06:57:00,44.1,38.6,30.00,WNW,294,2.0,3.0,81,0.00,,,0.00,0,Wunderground v.1.15,2013-10-20 10:57:00,
2013-10-20 06:59:00,44.1,38.6,30.01,SW,219,2.0,3.0,81,0.00,,,0.00,0,Wunderground v.1.15,2013-10-20 10:59:00,
2013-10-20 07:00:00,44.1,38.6,30.00,WSW,248,2.0,2.0,81,0.00,,,0.00,0,Wunderground v.1.15,2013-10-20 11:00:00,
2013-10-20 07:04:00,44.0,38.5,30.01,WSW,246,1.0,3.0,81,0.00,,,0.00,0,Wunderground v.1.15,2013-10-20 11:04:00,
2013-10-20 07:05:00,44.0,38.5,30.01,West,281,2.0,3.0,81,0.00,,,0.00,0,Wunderground v.1.15,2013-10-20 11:05:00,
2013-10-20 07:06:00,44.0,38.5,30.01,WNW,284,2.0,4.0,81,0.00,,,0.00,0,Wunderground v.1.15,2013-10-20 11:06:00,
2013-10-20 07:08:00,44.0,38.5,30.01,WSW,256,2.0,4.0,81,0.00,,,0.00,0,Wunderground v.1.15,2013-10-20 11:08:00,
2013-10-20 07:10:00,44.0,38.5,30.01,WNW,286,2.0,4.0,81,0.00,,,0.00,0,Wunderground v.1.15,2013-10-20 11:10:00,
2013-10-20 07:13:00,44.0,38.5,30.01,West,269,2.0,6.0,81,0.00,,,0.00,0,Wunderground v.1.15,2013-10-20 11:13:00,
2013-10-20 07:14:00,44.0,38.5,30.01,WNW,288,2.0,6.0,81,0.00,,,0.00,0,Wunderground v.1.15,2013-10-20 11:14:00,
2013-10-20 07:16:00,44.0,38.5,30.01,WNW,294,2.0,6.0,81,0.00,,,0.00,0,Wunderground v.1.15,2013-10-20 11:16:00,
2013-10-20 07:17:00,44.0,38.5,30.01,WNW,283,2.0,6.0,81,0.00,,,0.00,0,Wunderground v.1.15,2013-10-20 11:17:00,
2013-10-20 07:19:00,44.0,38.5,30.01,WNW,298,2.0,6.0,81,0.00,,,0.00,0,Wunderground v.1.15,2013-10-20 11:19:00,
2013-10-20 07:20:00,43.9,38.4,30.01,WNW,286,2.0,3.0,81,0.00,,,0.00,0,Wunderground v.1.15,2013-10-20 11:20:00,
2013-10-20 07:23:00,43.9,38.4,30.01,NNW,329,2.0,3.0,81,0.00,,,0.00,5,Wunderground v.1.15,2013-10-20 11:23:00,
2013-10-20 07:26:00,43.8,38.3,30.01,NW,310,2.0,3.0,81,0.00,,,0.00,5,Wunderground v.1.15,2013-10-20 11:26:00,
2013-10-20 07:28:00,43.8,38.3,30.01,WNW,298,2.0,4.0,81,0.00,,,0.00,7,Wunderground v.1.15,2013-10-20 11:28:00,
2013-10-20 07:30:00,43.7,38.3,30.01,WNW,303,2.0,2.0,81,0.00,,,0.00,9,Wunderground v.1.15,2013-10-20 11:30:00,
2013-10-20 07:31:00,43.7,38.3,30.01,WNW,293,2.0,2.0,81,0.00,,,0.00,9,Wunderground v.1.15,2013-10-20 11:31:00,
2013-10-20 07:34:00,43.7,38.3,30.01,NW,308,2.0,2.0,81,0.00,,,0.00,11,Wunderground v.1.15,2013-10-20 11:34:00,
2013-10-20 07:36:00,43.7,38.3,30.01,NNE,28,2.0,2.0,81,0.00,,,0.00,11,Wunderground v.1.15,2013-10-20 11:36:00,
2013-10-20 07:37:00,43.6,38.2,30.01,WNW,282,2.0,2.0,81,0.00,,,0.00,12,Wunderground v.1.15,2013-10-20 11:37:00,
2013-10-20 07:38:00,43.6,38.2,30.01,NW,309,2.0,2.0,81,0.00,,,0.00,12,Wunderground v.1.15,2013-10-20 11:38:00,
2013-10-20 07:43:00,43.5,38.1,30.01,WNW,292,2.0,2.0,81,0.00,,,0.00,14,Wunderground v.1.15,2013-10-20 11:43:00,
2013-10-20 07:44:00,43.6,38.2,30.01,WNW,288,2.0,2.0,81,0.00,,,0.00,14,Wunderground v.1.15,2013-10-20 11:44:00,
2013-10-20 07:45:00,43.6,38.2,30.01,West,263,2.0,2.0,81,0.00,,,0.00,16,Wunderground v.1.15,2013-10-20 11:45:00,
2013-10-20 07:46:00,43.6,38.2,30.01,WSW,249,2.0,2.0,81,0.00,,,0.00,16,Wunderground v.1.15,2013-10-20 11:46:00,
2013-10-20 07:48:00,43.6,38.2,30.01,WSW,240,2.0,4.0,81,0.00,,,0.00,16,Wunderground v.1.15,2013-10-20 11:48:00,
2013-10-20 07:49:00,43.5,38.1,30.01,West,265,2.0,4.0,81,0.00,,,0.00,18,Wunderground v.1.15,2013-10-20 11:49:00,
2013-10-20 07:51:00,43.5,38.1,30.02,West,267,2.0,2.0,81,0.00,,,0.00,18,Wunderground v.1.15,2013-10-20 11:51:00,
2013-10-20 07:52:00,43.5,38.1,30.02,WNW,292,2.0,2.0,81,0.00,,,0.00,18,Wunderground v.1.15,2013-10-20 11:52:00,
2013-10-20 07:56:00,43.3,38.2,30.02,WSW,254,2.0,2.0,82,0.00,,,0.00,19,Wunderground v.1.15,2013-10-20 11:56:00,
2013-10-20 07:58:00,43.3,38.2,30.02,West,265,2.0,2.0,82,0.00,,,0.00,21,Wunderground v.1.15,2013-10-20 11:58:00,
2013-10-20 08:01:00,43.2,38.1,30.02,West,261,2.0,2.0,82,0.00,,,0.00,23,Wunderground v.1.15,2013-10-20 12:01:00,
2013-10-20 08:02:00,43.2,38.1,30.02,WNW,284,2.0,2.0,82,0.00,,,0.00,23,Wunderground v.1.15,2013-10-20 12:02:00,
2013-10-20 08:03:00,43.2,38.1,30.02,West,271,2.0,3.0,82,0.00,,,0.00,23,Wunderground v.1.15,2013-10-20 12:03:00,
2013-10-20 08:06:00,43.2,38.4,30.02,West,271,2.0,4.0,83,0.00,,,0.00,25,Wunderground v.1.15,2013-10-20 12:06:00,
2013-10-20 08:07:00,43.2,38.4,30.02,SW,225,2.0,4.0,83,0.00,,,0.00,25,Wunderground v.1.15,2013-10-20 12:07:00,
2013-10-20 08:08:00,43.1,38.3,30.02,WSW,254,2.0,4.0,83,0.00,,,0.00,25,Wunderground v.1.15,2013-10-20 12:08:00,
2013-10-20 08:09:00,43.1,38.3,30.03,West,269,2.0,4.0,83,0.00,,,0.00,26,Wunderground v.1.15,2013-10-20 12:09:00,
2013-10-20 08:11:00,43.1,38.3,30.03,WSW,256,2.0,4.0,83,0.00,,,0.00,26,Wunderground v.1.15,2013-10-20 12:11:00,
2013-10-20 08:13:00,43.1,38.3,30.03,West,265,2.0,4.0,83,0.00,,,0.00,28,Wunderground v.1.15,2013-10-20 12:13:00,
2013-10-20 08:14:00,43.1,38.3,30.03,West,272,2.0,4.0,83,0.00,,,0.00,28,Wunderground v.1.15,2013-10-20 12:14:00,
2013-10-20 08:16:00,43.2,38.4,30.03,SSE,164,2.0,4.0,83,0.00,,,0.00,30,Wunderground v.1.15,2013-10-20 12:16:00,
2013-10-20 08:18:00,43.2,38.4,30.03,SSE,147,2.0,4.0,83,0.00,,,0.00,32,Wunderground v.1.15,2013-10-20 12:18:00,
2013-10-20 08:19:00,43.1,38.3,30.03,SE,140,2.0,4.0,83,0.00,,,0.00,33,Wunderground v.1.15,2013-10-20 12:19:00,
2013-10-20 08:20:00,43.2,38.4,30.03,SE,144,2.0,2.0,83,0.00,,,0.00,35,Wunderground v.1.15,2013-10-20 12:20:00,
2013-10-20 08:22:00,43.2,38.4,30.03,West,278,1.0,2.0,83,0.00,,,0.00,42,Wunderground v.1.15,2013-10-20 12:22:00,
2013-10-20 08:24:00,43.2,38.4,30.03,West,263,1.0,2.0,83,0.00,,,0.00,33,Wunderground v.1.15,2013-10-20 12:24:00,
2013-10-20 08:25:00,43.2,38.4,30.03,WSW,246,1.0,2.0,83,0.00,,,0.00,35,Wunderground v.1.15,2013-10-20 12:25:00,
2013-10-20 08:27:00,43.3,38.5,30.03,SE,142,1.0,2.0,83,0.00,,,0.00,49,Wunderground v.1.15,2013-10-20 12:27:00,
2013-10-20 08:30:00,43.4,38.3,30.04,ESE,119,1.0,2.0,82,0.00,,,0.00,39,Wunderground v.1.15,2013-10-20 12:30:00,
2013-10-20 08:32:00,43.5,38.4,30.04,SE,128,2.0,2.0,82,0.00,,,0.00,54,Wunderground v.1.15,2013-10-20 12:32:00,
2013-10-20 08:34:00,43.6,38.5,30.04,SSW,202,2.0,2.0,82,0.00,,,0.00,53,Wunderground v.1.15,2013-10-20 12:34:00,
2013-10-20 08:35:00,43.6,38.5,30.04,WSW,250,2.0,2.0,82,0.00,,,0.00,46,Wunderground v.1.15,2013-10-20 12:35:00,
2013-10-20 08:37:00,43.7,38.6,30.04,SE,134,2.0,4.0,82,0.00,,,0.00,47,Wunderground v.1.15,2013-10-20 12:37:00,
2013-10-20 08:38:00,43.8,38.3,30.04,ESE,112,2.0,4.0,81,0.00,,,0.00,53,Wunderground v.1.15,2013-10-20 12:38:00,
2013-10-20 08:40:00,43.8,38.3,30.04,ESE,107,2.0,2.0,81,0.00,,,0.00,58,Wunderground v.1.15,2013-10-20 12:40:00,
2013-10-20 08:41:00,43.9,38.4,30.04,NW,310,2.0,2.0,81,0.00,,,0.00,53,Wunderground v.1.15,2013-10-20 12:41:00,
2013-10-20 08:44:00,44.1,38.6,30.04,SE,131,2.0,4.0,81,0.00,,,0.00,42,Wunderground v.1.15,2013-10-20 12:44:00,
2013-10-20 08:45:00,44.1,38.3,30.04,NE,52,2.0,4.0,80,0.00,,,0.00,42,Wunderground v.1.15,2013-10-20 12:45:00,
2013-10-20 08:49:00,44.3,38.5,30.04,West,271,2.0,4.0,80,0.00,,,0.00,44,Wunderground v.1.15,2013-10-20 12:49:00,
2013-10-20 08:53:00,44.6,38.5,30.05,WSW,240,3.0,4.0,79,0.00,,,0.00,44,Wunderground v.1.15,2013-10-20 12:53:00,
2013-10-20 08:56:00,44.7,38.6,30.05,NNW,335,2.0,4.0,79,0.00,,,0.00,46,Wunderground v.1.15,2013-10-20 12:56:00,
2013-10-20 08:58:00,44.8,38.4,30.05,SE,143,2.0,5.0,78,0.00,,,0.00,46,Wunderground v.1.15,2013-10-20 12:58:00,
2013-10-20 08:59:00,44.8,38.7,30.05,East,88,3.0,5.0,79,0.00,,,0.00,46,Wunderground v.1.15,2013-10-20 12:59:00,
2013-10-20 09:02:00,44.9,38.8,30.05,SE,125,2.0,7.0,79,0.00,,,0.00,47,Wunderground v.1.15,2013-10-20 13:02:00,
2013-10-20 09:05:00,45.0,38.6,30.05,NNE,14,3.0,7.0,78,0.00,,,0.00,105,Wunderground v.1.15,2013-10-20 13:05:00,
2013-10-20 09:08:00,45.3,38.8,30.05,South,177,3.0,7.0,78,0.00,,,0.00,243,Wunderground v.1.15,2013-10-20 13:08:00,
2013-10-20 09:10:00,45.6,39.1,30.05,SE,136,2.0,5.0,78,0.00,,,0.00,248,Wunderground v.1.15,2013-10-20 13:10:00,
2013-10-20 09:11:00,45.6,39.1,30.05,South,169,3.0,5.0,78,0.00,,,0.00,251,Wunderground v.1.15,2013-10-20 13:11:00,
2013-10-20 09:12:00,45.8,39.0,30.05,SE,135,3.0,5.0,77,0.00,,,0.00,255,Wunderground v.1.15,2013-10-20 13:12:00,
2013-10-20 09:16:00,46.2,39.4,30.05,ESE,118,2.0,7.0,77,0.00,,,0.00,265,Wunderground v.1.15,2013-10-20 13:16:00,
2013-10-20 09:17:00,46.3,39.5,30.05,SE,135,2.0,7.0,77,0.00,,,0.00,269,Wunderground v.1.15,2013-10-20 13:17:00,
2013-10-20 09:18:00,46.4,39.2,30.05,SE,132,3.0,7.0,76,0.00,,,0.00,272,Wunderground v.1.15,2013-10-20 13:18:00,
2013-10-20 09:19:00,46.4,39.2,30.05,ESE,123,3.0,7.0,76,0.00,,,0.00,274,Wunderground v.1.15,2013-10-20 13:19:00,
2013-10-20 09:23:00,46.5,39.0,30.05,ENE,77,3.0,9.0,75,0.00,,,0.00,283,Wunderground v.1.15,2013-10-20 13:23:00,
2013-10-20 09:24:00,46.6,39.4,30.05,NNW,337,4.0,9.0,76,0.00,,,0.00,285,Wunderground v.1.15,2013-10-20 13:24:00,
2013-10-20 09:25:00,46.6,39.1,30.06,West,263,4.0,9.0,75,0.00,,,0.00,290,Wunderground v.1.15,2013-10-20 13:25:00,
2013-10-20 09:29:00,47.0,39.8,30.06,SE,128,4.0,9.0,76,0.00,,,0.00,301,Wunderground v.1.15,2013-10-20 13:29:00,
2013-10-20 09:31:00,47.1,39.6,30.05,SE,128,4.0,7.0,75,0.00,,,0.00,308,Wunderground v.1.15,2013-10-20 13:31:00,
2013-10-20 09:33:00,47.2,39.7,30.06,SE,131,4.0,7.0,75,0.00,,,0.00,315,Wunderground v.1.15,2013-10-20 13:33:00,
2013-10-20 09:35:00,47.4,39.9,30.06,NNW,346,4.0,7.0,75,0.00,,,0.00,320,Wunderground v.1.15,2013-10-20 13:35:00,
2013-10-20 09:36:00,47.5,40.0,30.06,SE,132,4.0,7.0,75,0.00,,,0.00,322,Wunderground v.1.15,2013-10-20 13:36:00,
2013-10-20 09:39:00,47.7,39.5,30.06,SSE,157,4.0,7.0,73,0.00,,,0.00,327,Wunderground v.1.15,2013-10-20 13:39:00,
2013-10-20 09:41:00,47.9,39.7,30.06,NE,51,3.0,5.0,73,0.00,,,0.00,332,Wunderground v.1.15,2013-10-20 13:41:00,
2013-10-20 09:45:00,48.3,39.7,30.06,WNW,288,3.0,5.0,72,0.00,,,0.00,345,Wunderground v.1.15,2013-10-20 13:45:00,
2013-10-20 09:47:00,48.6,40.0,30.06,SSE,163,3.0,5.0,72,0.00,,,0.00,350,Wunderground v.1.15,2013-10-20 13:47:00,
2013-10-20 09:50:00,48.7,39.4,30.06,NNW,328,4.0,4.0,70,0.00,,,0.00,355,Wunderground v.1.15,2013-10-20 13:50:00,
2013-10-20 09:53:00,48.8,39.4,30.06,West,273,4.0,6.0,70,0.00,,,0.00,366,Wunderground v.1.15,2013-10-20 13:53:00,
2013-10-20 09:54:00,48.8,39.4,30.06,West,275,5.0,6.0,70,0.00,,,0.00,362,Wunderground v.1.15,2013-10-20 13:54:00,
2013-10-20 09:55:00,48.8,39.4,30.06,WNW,283,5.0,7.0,70,0.00,,,0.00,369,Wunderground v.1.15,2013-10-20 13:55:00,
2013-10-20 09:56:00,48.7,39.0,30.06,NW,315,5.0,8.0,69,0.00,,,0.00,371,Wunderground v.1.15,2013-10-20 13:56:00,
2013-10-20 09:59:00,48.7,39.0,30.06,WNW,295,6.0,8.0,69,0.00,,,0.00,378,Wunderground v.1.15,2013-10-20 13:59:00,
2013-10-20 10:01:00,48.8,39.4,30.06,WNW,294,6.0,6.0,70,0.00,,,0.00,383,Wunderground v.1.15,2013-10-20 14:01:00,
2013-10-20 10:02:00,48.8,39.8,30.06,West,280,5.0,6.0,71,0.00,,,0.00,387,Wunderground v.1.15,2013-10-20 14:02:00,
2013-10-20 10:04:00,49.0,39.6,30.06,WNW,290,5.0,6.0,70,0.00,,,0.00,388,Wunderground v.1.15,2013-10-20 14:04:00,
2013-10-20 10:08:00,49.2,39.1,30.06,West,263,5.0,7.0,68,0.00,,,0.00,399,Wunderground v.1.15,2013-10-20 14:08:00,
2013-10-20 10:10:00,49.1,39.0,30.06,WNW,294,5.0,5.0,68,0.00,,,0.00,408,Wunderground v.1.15,2013-10-20 14:10:00,
2013-10-20 10:11:00,49.1,39.0,30.06,SW,233,5.0,5.0,68,0.00,,,0.00,410,Wunderground v.1.15,2013-10-20 14:11:00,
2013-10-20 10:12:00,49.1,39.0,30.06,NW,319,5.0,6.0,68,0.00,,,0.00,399,Wunderground v.1.15,2013-10-20 14:12:00,
2013-10-20 10:16:00,49.2,39.1,30.06,NW,311,5.0,6.0,68,0.00,,,0.00,424,Wunderground v.1.15,2013-10-20 14:16:00,
2013-10-20 10:17:00,49.3,39.6,30.06,NW,325,5.0,6.0,69,0.00,,,0.00,422,Wunderground v.1.15,2013-10-20 14:17:00,
2013-10-20 10:20:00,49.4,39.3,30.06,NNW,327,5.0,5.0,68,0.00,,,0.00,432,Wunderground v.1.15,2013-10-20 14:20:00,
2013-10-20 10:25:00,49.5,39.4,30.06,West,276,5.0,6.0,68,0.00,,,0.00,436,Wunderground v.1.15,2013-10-20 14:25:00,
2013-10-20 10:26:00,49.5,39.4,30.06,ESE,116,5.0,6.0,68,0.00,,,0.00,443,Wunderground v.1.15,2013-10-20 14:26:00,
2013-10-20 10:28:00,49.6,39.8,30.06,WNW,284,5.0,8.0,69,0.00,,,0.00,448,Wunderground v.1.15,2013-10-20 14:28:00,
2013-10-20 10:32:00,49.8,39.3,30.06,WNW,302,5.0,7.0,67,0.00,,,0.00,455,Wunderground v.1.15,2013-10-20 14:32:00,
2013-10-20 10:33:00,49.8,39.7,30.06,West,268,5.0,7.0,68,0.00,,,0.00,455,Wunderground v.1.15,2013-10-20 14:33:00,
2013-10-20 10:34:00,49.8,39.7,30.06,WNW,283,5.0,7.0,68,0.00,,,0.00,457,Wunderground v.1.15,2013-10-20 14:34:00,
2013-10-20 10:36:00,49.9,39.8,30.06,SW,227,5.0,7.0,68,0.00,,,0.00,457,Wunderground v.1.15,2013-10-20 14:36:00,
2013-10-20 10:37:00,50.0,39.5,30.06,SSW,211,5.0,7.0,67,0.00,,,0.00,459,Wunderground v.1.15,2013-10-20 14:37:00,
2013-10-20 10:39:00,50.1,39.6,30.06,SE,127,5.0,7.0,67,0.00,,,0.00,459,Wunderground v.1.15,2013-10-20 14:39:00,
2013-10-20 10:40:00,50.2,39.3,30.06,SE,131,4.0,6.0,66,0.00,,,0.00,462,Wunderground v.1.15,2013-10-20 14:40:00,
2013-10-20 10:42:00,50.2,39.3,30.07,WNW,290,5.0,6.0,66,0.00,,,0.00,468,Wunderground v.1.15,2013-10-20 14:42:00,
2013-10-20 10:44:00,50.3,39.8,30.07,South,178,4.0,6.0,67,0.00,,,0.00,469,Wunderground v.1.15,2013-10-20 14:44:00,
2013-10-20 10:46:00,50.5,39.9,30.07,NW,315,4.0,6.0,67,0.00,,,0.00,471,Wunderground v.1.15,2013-10-20 14:46:00,
2013-10-20 10:47:00,50.6,39.7,30.07,West,278,4.0,6.0,66,0.00,,,0.00,473,Wunderground v.1.15,2013-10-20 14:47:00,
2013-10-20 10:49:00,50.6,39.7,30.07,SW,230,4.0,6.0,66,0.00,,,0.00,480,Wunderground v.1.15,2013-10-20 14:49:00,
2013-10-20 10:50:00,50.6,39.3,30.07,SSE,165,4.0,5.0,65,0.00,,,0.00,482,Wunderground v.1.15,2013-10-20 14:50:00,
2013-10-20 10:52:00,50.7,39.4,30.07,NW,318,4.0,8.0,65,0.00,,,0.00,492,Wunderground v.1.15,2013-10-20 14:52:00,
2013-10-20 10:55:00,50.7,39.4,30.07,North,9,5.0,8.0,65,0.00,,,0.00,483,Wunderground v.1.15,2013-10-20 14:55:00,
2013-10-20 10:56:00,50.7,39.7,30.07,West,264,5.0,8.0,66,0.00,,,0.00,492,Wunderground v.1.15,2013-10-20 14:56:00,
2013-10-20 10:57:00,50.8,39.8,30.07,ESE,123,4.0,8.0,66,0.00,,,0.00,494,Wunderground v.1.15,2013-10-20 14:57:00,
2013-10-20 10:59:00,51.0,40.0,30.07,NW,315,4.0,8.0,66,0.00,,,0.00,494,Wunderground v.1.15,2013-10-20 14:59:00,
2013-10-20 11:02:00,51.1,40.1,30.07,WNW,298,4.0,8.0,66,0.00,,,0.00,503,Wunderground v.1.15,2013-10-20 15:02:00,
2013-10-20 11:05:00,51.1,39.7,30.07,West,277,4.0,8.0,65,0.00,,,0.00,504,Wunderground v.1.15,2013-10-20 15:05:00,
2013-10-20 11:07:00,51.2,39.4,30.07,WNW,286,4.0,8.0,64,0.00,,,0.00,512,Wunderground v.1.15,2013-10-20 15:07:00,
2013-10-20 11:08:00,51.3,39.9,30.07,West,277,5.0,8.0,65,0.00,,,0.00,512,Wunderground v.1.15,2013-10-20 15:08:00,
2013-10-20 11:10:00,51.5,39.7,30.07,West,274,4.0,5.0,64,0.00,,,0.00,517,Wunderground v.1.15,2013-10-20 15:10:00,
2013-10-20 11:13:00,51.6,40.2,30.07,West,277,4.0,8.0,65,0.00,,,0.00,519,Wunderground v.1.15,2013-10-20 15:13:00,
2013-10-20 11:14:00,51.6,39.8,30.07,NW,311,4.0,8.0,64,0.00,,,0.00,524,Wunderground v.1.15,2013-10-20 15:14:00,
2013-10-20 11:15:00,51.6,40.2,30.07,NW,306,4.0,8.0,65,0.00,,,0.00,520,Wunderground v.1.15,2013-10-20 15:15:00,
2013-10-20 11:17:00,51.6,40.2,30.07,West,273,4.0,8.0,65,0.00,,,0.00,524,Wunderground v.1.15,2013-10-20 15:17:00,
2013-10-20 11:19:00,51.7,39.5,30.07,WNW,303,5.0,8.0,63,0.00,,,0.00,522,Wunderground v.1.15,2013-10-20 15:19:00,
2013-10-20 11:20:00,51.7,39.9,30.07,West,263,5.0,5.0,64,0.00,,,0.00,517,Wunderground v.1.15,2013-10-20 15:20:00,
2013-10-20 11:21:00,51.7,39.5,30.07,WNW,292,5.0,5.0,63,0.00,,,0.00,534,Wunderground v.1.15,2013-10-20 15:21:00,
2013-10-20 11:23:00,51.8,40.0,30.07,WNW,294,5.0,5.0,64,0.00,,,0.00,538,Wunderground v.1.15,2013-10-20 15:23:00,
2013-10-20 11:24:00,51.9,40.5,30.07,WNW,285,5.0,5.0,65,0.00,,,0.00,513,Wunderground v.1.15,2013-10-20 15:24:00,
2013-10-20 11:27:00,52.0,39.4,30.07,SSE,161,5.0,5.0,62,0.00,,,0.00,545,Wunderground v.1.15,2013-10-20 15:27:00,
2013-10-20 11:28:00,52.0,39.8,30.07,ESE,118,4.0,7.0,63,0.00,,,0.00,529,Wunderground v.1.15,2013-10-20 15:28:00,
2013-10-20 11:30:00,52.2,40.0,30.07,WNW,292,4.0,5.0,63,0.00,,,0.00,563,Wunderground v.1.15,2013-10-20 15:30:00,
2013-10-20 11:31:00,52.2,40.0,30.07,SSW,192,4.0,5.0,63,0.00,,,0.00,563,Wunderground v.1.15,2013-10-20 15:31:00,
2013-10-20 11:32:00,52.4,40.2,30.07,SE,142,4.0,10.0,63,0.00,,,0.00,559,Wunderground v.1.15,2013-10-20 15:32:00,
2013-10-20 11:34:00,52.5,39.8,30.07,ENE,71,4.0,10.0,62,0.00,,,0.00,559,Wunderground v.1.15,2013-10-20 15:34:00,
2013-10-20 11:35:00,52.5,39.8,30.07,NNW,331,4.0,10.0,62,0.00,,,0.00,559,Wunderground v.1.15,2013-10-20 15:35:00,
2013-10-20 11:36:00,52.6,40.4,30.07,WSW,240,4.0,10.0,63,0.00,,,0.00,575,Wunderground v.1.15,2013-10-20 15:36:00,
2013-10-20 11:40:00,52.7,39.6,30.07,East,92,4.0,4.0,61,0.00,,,0.00,621,Wunderground v.1.15,2013-10-20 15:40:00,
2013-10-20 11:42:00,52.9,40.6,30.07,WNW,303,4.0,5.0,63,0.00,,,0.00,606,Wunderground v.1.15,2013-10-20 15:42:00,
2013-10-20 11:43:00,53.0,40.7,30.07,WNW,295,4.0,5.0,63,0.00,,,0.00,612,Wunderground v.1.15,2013-10-20 15:43:00,
2013-10-20 11:44:00,53.1,41.2,30.07,WNW,293,3.0,5.0,64,0.00,,,0.00,606,Wunderground v.1.15,2013-10-20 15:44:00,
2013-10-20 11:45:00,53.3,41.0,30.07,West,273,3.0,5.0,63,0.00,,,0.00,596,Wunderground v.1.15,2013-10-20 15:45:00,
2013-10-20 11:47:00,53.5,40.4,30.07,West,269,3.0,5.0,61,0.00,,,0.00,596,Wunderground v.1.15,2013-10-20 15:47:00,
2013-10-20 11:49:00,53.4,40.3,30.07,West,273,4.0,5.0,61,0.00,,,0.00,594,Wunderground v.1.15,2013-10-20 15:49:00,
2013-10-20 11:50:00,53.4,40.3,30.07,NNW,346,4.0,4.0,61,0.00,,,0.00,526,Wunderground v.1.15,2013-10-20 15:50:00,
2013-10-20 11:51:00,53.3,40.6,30.07,WNW,292,4.0,4.0,62,0.00,,,0.00,613,Wunderground v.1.15,2013-10-20 15:51:00,
2013-10-20 11:52:00,53.3,40.2,30.07,West,276,4.0,4.0,61,0.00,,,0.00,629,Wunderground v.1.15,2013-10-20 15:52:00,
2013-10-20 11:54:00,53.2,40.5,30.07,WNW,289,4.0,4.0,62,0.00,,,0.00,668,Wunderground v.1.15,2013-10-20 15:54:00,
2013-10-20 11:57:00,53.1,40.4,30.07,WNW,290,4.0,4.0,62,0.00,,,0.00,668,Wunderground v.1.15,2013-10-20 15:57:00,
2013-10-20 11:58:00,53.1,40.4,30.07,NW,308,4.0,4.0,62,0.00,,,0.00,613,Wunderground v.1.15,2013-10-20 15:58:00,
2013-10-20 12:00:00,53.5,40.8,30.07,WSW,242,4.0,6.0,62,0.00,,,0.00,606,Wunderground v.1.15,2013-10-20 16:00:00,
2013-10-20 12:01:00,53.5,40.4,30.07,WNW,284,4.0,6.0,61,0.00,,,0.00,606,Wunderground v.1.15,2013-10-20 16:01:00,
2013-10-20 12:03:00,53.7,40.6,30.07,SE,131,4.0,8.0,61,0.00,,,0.00,629,Wunderground v.1.15,2013-10-20 16:03:00,
2013-10-20 12:05:00,53.8,39.8,30.07,NE,49,4.0,8.0,59,0.00,,,0.00,650,Wunderground v.1.15,2013-10-20 16:05:00,
2013-10-20 12:06:00,53.8,40.7,30.07,SW,224,4.0,8.0,61,0.00,,,0.00,638,Wunderground v.1.15,2013-10-20 16:06:00,
2013-10-20 12:11:00,54.0,41.3,30.07,WNW,289,4.0,4.0,62,0.00,,,0.00,708,Wunderground v.1.15,2013-10-20 16:11:00,
2013-10-20 12:12:00,54.1,41.4,30.07,NW,304,4.0,5.0,62,0.00,,,0.00,708,Wunderground v.1.15,2013-10-20 16:12:00,
2013-10-20 12:13:00,54.2,41.0,30.07,ESE,109,4.0,5.0,61,0.00,,,0.00,705,Wunderground v.1.15,2013-10-20 16:13:00,
2013-10-20 12:14:00,54.4,40.8,30.07,NE,39,4.0,5.0,60,0.00,,,0.00,737,Wunderground v.1.15,2013-10-20 16:14:00,
2013-10-20 12:17:00,54.7,40.6,30.07,SE,136,4.0,6.0,59,0.00,,,0.00,752,Wunderground v.1.15,2013-10-20 16:17:00,
2013-10-20 12:19:00,54.8,40.7,30.07,WNW,296,4.0,6.0,59,0.00,,,0.00,241,Wunderground v.1.15,2013-10-20 16:19:00,
2013-10-20 12:20:00,54.8,40.7,30.07,WNW,294,3.0,6.0,59,0.00,,,0.00,232,Wunderground v.1.15,2013-10-20 16:20:00,
2013-10-20 12:23:00,54.4,39.9,30.07,WNW,295,4.0,8.0,58,0.00,,,0.00,160,Wunderground v.1.15,2013-10-20 16:23:00,
2013-10-20 12:25:00,54.0,40.0,30.07,North,360,4.0,8.0,59,0.00,,,0.00,165,Wunderground v.1.15,2013-10-20 16:25:00,
2013-10-20 12:28:00,53.7,40.1,30.07,WNW,298,4.0,8.0,60,0.00,,,0.00,654,Wunderground v.1.15,2013-10-20 16:28:00,
2013-10-20 12:29:00,53.7,40.6,30.07,North,5,4.0,8.0,61,0.00,,,0.00,654,Wunderground v.1.15,2013-10-20 16:29:00,
2013-10-20 12:31:00,53.7,40.1,30.07,WNW,294,4.0,4.0,60,0.00,,,0.00,125,Wunderground v.1.15,2013-10-20 16:31:00,
2013-10-20 12:32:00,53.7,40.1,30.07,West,272,4.0,4.0,60,0.00,,,0.00,125,Wunderground v.1.15,2013-10-20 16:32:00,
2013-10-20 12:33:00,53.7,40.1,30.07,WNW,286,4.0,4.0,60,0.00,,,0.00,666,Wunderground v.1.15,2013-10-20 16:33:00,
2013-10-20 12:36:00,53.7,40.1,30.07,WNW,282,4.0,7.0,60,0.00,,,0.00,666,Wunderground v.1.15,2013-10-20 16:36:00,
2013-10-20 12:37:00,53.7,40.1,30.07,WNW,296,4.0,7.0,60,0.00,,,0.00,700,Wunderground v.1.15,2013-10-20 16:37:00,
2013-10-20 12:39:00,53.8,40.7,30.07,NW,313,4.0,7.0,61,0.00,,,0.00,636,Wunderground v.1.15,2013-10-20 16:39:00,
2013-10-20 12:42:00,53.7,39.7,30.07,West,263,4.0,4.0,59,0.00,,,0.00,111,Wunderground v.1.15,2013-10-20 16:42:00,
2013-10-20 12:45:00,53.7,40.6,30.07,WSW,250,3.0,4.0,61,0.00,,,0.00,135,Wunderground v.1.15,2013-10-20 16:45:00,
2013-10-20 12:47:00,53.6,40.5,30.07,West,265,3.0,4.0,61,0.00,,,0.00,139,Wunderground v.1.15,2013-10-20 16:47:00,
2013-10-20 12:48:00,53.5,39.9,30.07,West,277,3.0,4.0,60,0.00,,,0.00,100,Wunderground v.1.15,2013-10-20 16:48:00,
2013-10-20 12:51:00,53.6,40.5,30.07,WNW,285,2.0,4.0,61,0.00,,,0.00,613,Wunderground v.1.15,2013-10-20 16:51:00,
2013-10-20 12:52:00,53.6,40.5,30.07,NW,308,2.0,5.0,61,0.00,,,0.00,599,Wunderground v.1.15,2013-10-20 16:52:00,
2013-10-20 12:54:00,53.7,40.6,30.07,NE,45,2.0,5.0,61,0.00,,,0.00,329,Wunderground v.1.15,2013-10-20 16:54:00,
2013-10-20 12:55:00,53.8,40.7,30.07,WNW,303,2.0,5.0,61,0.00,,,0.00,329,Wunderground v.1.15,2013-10-20 16:55:00,
2013-10-20 12:58:00,54.0,40.0,30.06,WSW,247,2.0,5.0,59,0.00,,,0.00,610,Wunderground v.1.15,2013-10-20 16:58:00,
2013-10-20 13:01:00,54.0,40.0,30.06,SW,235,3.0,3.0,59,0.00,,,0.00,613,Wunderground v.1.15,2013-10-20 17:01:00,
2013-10-20 13:02:00,54.1,40.1,30.06,NW,309,3.0,3.0,59,0.00,,,0.00,612,Wunderground v.1.15,2013-10-20 17:02:00,
2013-10-20 13:04:00,54.4,40.4,30.06,WSW,245,3.0,3.0,59,0.00,,,0.00,610,Wunderground v.1.15,2013-10-20 17:04:00,
2013-10-20 13:06:00,54.7,40.6,30.06,West,279,3.0,3.0,59,0.00,,,0.00,624,Wunderground v.1.15,2013-10-20 17:06:00,
2013-10-20 13:11:00,55.1,40.1,30.06,NW,313,3.0,5.0,57,0.00,,,0.00,621,Wunderground v.1.15,2013-10-20 17:11:00,
2013-10-20 13:12:00,55.1,39.7,30.06,NW,311,3.0,6.0,56,0.00,,,0.00,624,Wunderground v.1.15,2013-10-20 17:12:00,
2013-10-20 13:13:00,55.1,39.7,30.06,NW,318,3.0,6.0,56,0.00,,,0.00,624,Wunderground v.1.15,2013-10-20 17:13:00,
2013-10-20 13:14:00,55.0,39.1,30.06,NW,320,3.0,6.0,55,0.00,,,0.00,84,Wunderground v.1.15,2013-10-20 17:14:00,
2013-10-20 13:15:00,54.9,39.0,30.06,WNW,293,4.0,6.0,55,0.00,,,0.00,125,Wunderground v.1.15,2013-10-20 17:15:00,
2013-10-20 13:18:00,55.0,39.6,30.06,West,281,4.0,6.0,56,0.00,,,0.00,645,Wunderground v.1.15,2013-10-20 17:18:00,
2013-10-20 13:20:00,55.2,39.8,30.06,West,279,4.0,4.0,56,0.00,,,0.00,624,Wunderground v.1.15,2013-10-20 17:20:00,
2013-10-20 13:21:00,55.3,39.9,30.06,West,259,4.0,4.0,56,0.00,,,0.00,684,Wunderground v.1.15,2013-10-20 17:21:00,
2013-10-20 13:22:00,55.4,40.0,30.06,ENE,63,4.0,4.0,56,0.00,,,0.00,666,Wunderground v.1.15,2013-10-20 17:22:00,
2013-10-20 13:24:00,55.5,39.6,30.06,West,271,3.0,4.0,55,0.00,,,0.00,682,Wunderground v.1.15,2013-10-20 17:24:00,
2013-10-20 13:25:00,55.5,39.1,30.06,WNW,290,3.0,4.0,54,0.00,,,0.00,682,Wunderground v.1.15,2013-10-20 17:25:00,
2013-10-20 13:27:00,55.5,39.6,30.06,WNW,296,4.0,5.0,55,0.00,,,0.00,130,Wunderground v.1.15,2013-10-20 17:27:00,
2013-10-20 13:29:00,55.5,39.6,30.05,North,355,4.0,6.0,55,0.00,,,0.00,622,Wunderground v.1.15,2013-10-20 17:29:00,
2013-10-20 13:31:00,55.7,39.8,30.06,NW,306,4.0,6.0,55,0.00,,,0.00,628,Wunderground v.1.15,2013-10-20 17:31:00,
2013-10-20 13:32:00,55.8,39.9,30.05,West,274,4.0,6.0,55,0.00,,,0.00,114,Wunderground v.1.15,2013-10-20 17:32:00,
2013-10-20 13:33:00,56.0,40.1,30.05,West,275,4.0,6.0,55,0.00,,,0.00,183,Wunderground v.1.15,2013-10-20 17:33:00,
2013-10-20 13:37:00,56.2,39.3,30.06,WSW,248,5.0,6.0,53,0.00,,,0.00,642,Wunderground v.1.15,2013-10-20 17:37:00,
2013-10-20 13:38:00,56.2,38.8,30.06,North,10,5.0,6.0,52,0.00,,,0.00,642,Wunderground v.1.15,2013-10-20 17:38:00,
2013-10-20 13:39:00,56.3,38.9,30.06,North,355,5.0,7.0,52,0.00,,,0.00,151,Wunderground v.1.15,2013-10-20 17:39:00,
2013-10-20 13:45:00,56.1,38.7,30.06,NW,315,6.0,7.0,52,0.00,,,0.00,158,Wunderground v.1.15,2013-10-20 17:45:00,
2013-10-20 13:46:00,56.2,38.8,30.06,NNE,26,6.0,7.0,52,0.00,,,0.00,158,Wunderground v.1.15,2013-10-20 17:46:00,
2013-10-20 13:49:00,56.2,38.3,30.05,North,355,6.0,7.0,51,0.00,,,0.00,118,Wunderground v.1.15,2013-10-20 17:49:00,
2013-10-20 13:52:00,56.0,38.1,30.05,NNW,327,6.0,7.0,51,0.00,,,0.00,109,Wunderground v.1.15,2013-10-20 17:52:00,
2013-10-20 13:54:00,55.8,38.4,30.06,NW,307,5.0,7.0,52,0.00,,,0.00,120,Wunderground v.1.15,2013-10-20 17:54:00,
2013-10-20 13:55:00,55.8,38.9,30.06,West,265,5.0,7.0,53,0.00,,,0.00,139,Wunderground v.1.15,2013-10-20 17:55:00,
2013-10-20 13:57:00,55.6,37.7,30.06,WNW,295,5.0,7.0,51,0.00,,,0.00,139,Wunderground v.1.15,2013-10-20 17:57:00,
2013-10-20 13:59:00,55.5,37.7,30.06,NW,304,5.0,7.0,51,0.00,,,0.00,116,Wunderground v.1.15,2013-10-20 17:59:00,
2013-10-20 14:00:00,55.5,37.7,30.06,NNW,336,5.0,10.0,51,0.00,,,0.00,113,Wunderground v.1.15,2013-10-20 18:00:00,
2013-10-20 14:02:00,55.4,37.6,30.06,North,360,5.0,10.0,51,0.00,,,0.00,84,Wunderground v.1.15,2013-10-20 18:02:00,
2013-10-20 14:03:00,55.3,37.5,30.06,West,281,5.0,10.0,51,0.00,,,0.00,84,Wunderground v.1.15,2013-10-20 18:03:00,
2013-10-20 14:04:00,55.3,37.5,30.06,WNW,285,6.0,10.0,51,0.00,,,0.00,81,Wunderground v.1.15,2013-10-20 18:04:00,
2013-10-20 14:06:00,55.2,37.9,30.06,NW,315,6.0,10.0,52,0.00,,,0.00,100,Wunderground v.1.15,2013-10-20 18:06:00,
2013-10-20 14:07:00,55.1,37.3,30.06,WNW,292,5.0,10.0,51,0.00,,,0.00,134,Wunderground v.1.15,2013-10-20 18:07:00,
2013-10-20 14:10:00,55.3,38.0,30.06,NW,317,5.0,5.0,52,0.00,,,0.00,148,Wunderground v.1.15,2013-10-20 18:10:00,
2013-10-20 14:12:00,55.4,38.1,30.06,NNW,340,5.0,5.0,52,0.00,,,0.00,148,Wunderground v.1.15,2013-10-20 18:12:00,
2013-10-20 14:13:00,55.5,38.1,30.06,NW,306,5.0,5.0,52,0.00,,,0.00,81,Wunderground v.1.15,2013-10-20 18:13:00,
2013-10-20 14:14:00,55.5,37.7,30.06,WNW,298,4.0,7.0,51,0.00,,,0.00,72,Wunderground v.1.15,2013-10-20 18:14:00,
2013-10-20 14:16:00,55.4,37.6,30.06,WNW,292,5.0,7.0,51,0.00,,,0.00,91,Wunderground v.1.15,2013-10-20 18:16:00,
2013-10-20 14:17:00,55.3,37.5,30.06,NW,315,5.0,7.0,51,0.00,,,0.00,91,Wunderground v.1.15,2013-10-20 18:17:00,
2013-10-20 14:19:00,55.4,38.1,30.06,WNW,286,5.0,7.0,52,0.00,,,0.00,105,Wunderground v.1.15,2013-10-20 18:19:00,
2013-10-20 14:21:00,55.4,38.1,30.06,West,275,5.0,8.0,52,0.00,,,0.00,107,Wunderground v.1.15,2013-10-20 18:21:00,
2013-10-20 14:22:00,55.4,38.5,30.06,NW,314,5.0,8.0,53,0.00,,,0.00,555,Wunderground v.1.15,2013-10-20 18:22:00,
2013-10-20 14:23:00,55.6,37.7,30.06,NW,311,5.0,8.0,51,0.00,,,0.00,563,Wunderground v.1.15,2013-10-20 18:23:00,
2013-10-20 14:24:00,55.7,37.8,30.06,NNW,344,5.0,8.0,51,0.00,,,0.00,540,Wunderground v.1.15,2013-10-20 18:24:00,
2013-10-20 14:25:00,55.8,37.9,30.05,NNW,348,5.0,8.0,51,0.00,,,0.00,540,Wunderground v.1.15,2013-10-20 18:25:00,
2013-10-20 14:28:00,56.1,37.7,30.06,NW,305,5.0,9.0,50,0.00,,,0.00,540,Wunderground v.1.15,2013-10-20 18:28:00,
2013-10-20 14:30:00,56.3,37.9,30.05,WNW,285,5.0,5.0,50,0.00,,,0.00,517,Wunderground v.1.15,2013-10-20 18:30:00,
2013-10-20 14:32:00,56.5,38.1,30.05,WNW,296,5.0,5.0,50,0.00,,,0.00,515,Wunderground v.1.15,2013-10-20 18:32:00,
2013-10-20 14:33:00,56.6,37.6,30.05,West,273,5.0,5.0,49,0.00,,,0.00,515,Wunderground v.1.15,2013-10-20 18:33:00,
2013-10-20 14:34:00,56.5,37.0,30.05,NNW,331,5.0,5.0,48,0.00,,,0.00,515,Wunderground v.1.15,2013-10-20 18:34:00,
2013-10-20 14:38:00,56.6,38.2,30.05,SSE,165,4.0,5.0,50,0.00,,,0.00,504,Wunderground v.1.15,2013-10-20 18:38:00,
2013-10-20 14:40:00,56.7,37.2,30.05,NW,304,4.0,5.0,48,0.00,,,0.00,508,Wunderground v.1.15,2013-10-20 18:40:00,
2013-10-20 14:41:00,56.7,37.7,30.05,WSW,251,4.0,5.0,49,0.00,,,0.00,508,Wunderground v.1.15,2013-10-20 18:41:00,
2013-10-20 14:45:00,56.6,38.2,30.05,NW,311,4.0,5.0,50,0.00,,,0.00,392,Wunderground v.1.15,2013-10-20 18:45:00,
2013-10-20 14:47:00,56.7,37.2,30.05,NW,322,4.0,6.0,48,0.00,,,0.00,151,Wunderground v.1.15,2013-10-20 18:47:00,
2013-10-20 14:48:00,56.8,37.8,30.05,NW,308,4.0,6.0,49,0.00,,,0.00,214,Wunderground v.1.15,2013-10-20 18:48:00,
2013-10-20 14:50:00,56.7,37.7,30.05,East,93,4.0,4.0,49,0.00,,,0.00,531,Wunderground v.1.15,2013-10-20 18:50:00,
2013-10-20 14:53:00,56.7,37.2,30.05,North,360,3.0,4.0,48,0.00,,,0.00,134,Wunderground v.1.15,2013-10-20 18:53:00,
2013-10-20 14:54:00,56.8,37.3,30.05,NW,306,3.0,4.0,48,0.00,,,0.00,146,Wunderground v.1.15,2013-10-20 18:54:00,
2013-10-20 14:57:00,57.0,37.5,30.05,SSE,155,3.0,4.0,48,0.00,,,0.00,171,Wunderground v.1.15,2013-10-20 18:57:00,
2013-10-20 15:00:00,57.4,37.3,30.05,SSE,148,3.0,3.0,47,0.00,,,0.00,160,Wunderground v.1.15,2013-10-20 19:00:00,
2013-10-20 15:03:00,57.4,37.9,30.05,SW,229,4.0,4.0,48,0.00,,,0.00,169,Wunderground v.1.15,2013-10-20 19:03:00,
2013-10-20 15:04:00,57.5,37.9,30.05,West,259,4.0,4.0,48,0.00,,,0.00,172,Wunderground v.1.15,2013-10-20 19:04:00,
2013-10-20 15:06:00,57.5,37.4,30.05,West,265,4.0,5.0,47,0.00,,,0.00,158,Wunderground v.1.15,2013-10-20 19:06:00,
2013-10-20 15:07:00,57.5,37.4,30.05,East,83,4.0,5.0,47,0.00,,,0.00,151,Wunderground v.1.15,2013-10-20 19:07:00,
2013-10-20 15:08:00,57.6,37.5,30.05,NNW,347,4.0,5.0,47,0.00,,,0.00,125,Wunderground v.1.15,2013-10-20 19:08:00,
2013-10-20 15:11:00,57.6,37.0,30.05,NNW,329,4.0,5.0,46,0.00,,,0.00,114,Wunderground v.1.15,2013-10-20 19:11:00,
2013-10-20 15:14:00,57.6,37.5,30.05,WNW,300,4.0,5.0,47,0.00,,,0.00,102,Wunderground v.1.15,2013-10-20 19:14:00,
2013-10-20 15:15:00,57.6,38.0,30.05,WNW,302,4.0,5.0,48,0.00,,,0.00,93,Wunderground v.1.15,2013-10-20 19:15:00,
2013-10-20 15:18:00,57.6,37.5,30.05,WNW,293,4.0,5.0,47,0.00,,,0.00,83,Wunderground v.1.15,2013-10-20 19:18:00,
2013-10-20 15:21:00,57.8,37.7,30.05,North,5,3.0,5.0,47,0.00,,,0.00,91,Wunderground v.1.15,2013-10-20 19:21:00,
2013-10-20 15:22:00,57.8,36.6,30.04,North,349,3.0,5.0,45,0.00,,,0.00,84,Wunderground v.1.15,2013-10-20 19:22:00,
2013-10-20 15:24:00,57.8,37.1,30.04,West,275,3.0,5.0,46,0.00,,,0.00,72,Wunderground v.1.15,2013-10-20 19:24:00,
2013-10-20 15:25:00,57.8,37.1,30.04,West,261,3.0,5.0,46,0.00,,,0.00,83,Wunderground v.1.15,2013-10-20 19:25:00,
2013-10-20 15:28:00,58.0,37.3,30.04,NNE,22,3.0,5.0,46,0.00,,,0.00,74,Wunderground v.1.15,2013-10-20 19:28:00,
2013-10-20 15:29:00,58.0,36.8,30.04,WNW,290,3.0,6.0,45,0.00,,,0.00,65,Wunderground v.1.15,2013-10-20 19:29:00,
2013-10-20 15:30:00,58.2,36.9,30.04,WNW,297,3.0,4.0,45,0.00,,,0.00,56,Wunderground v.1.15,2013-10-20 19:30:00,
2013-10-20 15:31:00,58.2,36.9,30.04,West,274,4.0,4.0,45,0.00,,,0.00,51,Wunderground v.1.15,2013-10-20 19:31:00,
2013-10-20 15:35:00,57.9,36.1,30.04,WSW,241,4.0,6.0,44,0.00,,,0.00,42,Wunderground v.1.15,2013-10-20 19:35:00,
2013-10-20 15:36:00,57.7,36.5,30.05,NNW,334,4.0,6.0,45,0.00,,,0.00,40,Wunderground v.1.15,2013-10-20 19:36:00,
2013-10-20 15:37:00,57.7,36.5,30.05,NNW,336,4.0,6.0,45,0.00,,,0.00,40,Wunderground v.1.15,2013-10-20 19:37:00,
2013-10-20 15:38:00,57.5,36.3,30.04,West,277,4.0,6.0,45,0.00,,,0.00,42,Wunderground v.1.15,2013-10-20 19:38:00,
2013-10-20 15:41:00,57.3,36.1,30.05,NW,307,4.0,4.0,45,0.00,,,0.00,58,Wunderground v.1.15,2013-10-20 19:41:00,
2013-10-20 15:43:00,57.2,36.6,30.04,ENE,57,4.0,4.0,46,0.00,,,0.00,70,Wunderground v.1.15,2013-10-20 19:43:00,
2013-10-20 15:45:00,57.2,36.0,30.04,NW,306,3.0,4.0,45,0.00,,,0.00,86,Wunderground v.1.15,2013-10-20 19:45:00,
2013-10-20 15:47:00,57.3,36.7,30.04,NW,305,3.0,5.0,46,0.00,,,0.00,98,Wunderground v.1.15,2013-10-20 19:47:00,
2013-10-20 15:48:00,57.3,37.2,30.04,WNW,302,3.0,5.0,47,0.00,,,0.00,95,Wunderground v.1.15,2013-10-20 19:48:00,
2013-10-20 15:49:00,57.5,36.9,30.04,West,278,3.0,5.0,46,0.00,,,0.00,86,Wunderground v.1.15,2013-10-20 19:49:00,
2013-10-20 15:50:00,57.5,36.9,30.04,WNW,285,3.0,3.0,46,0.00,,,0.00,77,Wunderground v.1.15,2013-10-20 19:50:00,
2013-10-20 15:53:00,57.9,36.7,30.04,ESE,107,3.0,5.0,45,0.00,,,0.00,62,Wunderground v.1.15,2013-10-20 19:53:00,
2013-10-20 15:55:00,58.0,36.2,30.04,East,98,3.0,9.0,44,0.00,,,0.00,69,Wunderground v.1.15,2013-10-20 19:55:00,
2013-10-20 15:56:00,58.1,36.3,30.04,NE,45,3.0,9.0,44,0.00,,,0.00,69,Wunderground v.1.15,2013-10-20 19:56:00,
2013-10-20 15:57:00,58.2,36.9,30.04,NW,320,3.0,9.0,45,0.00,,,0.00,70,Wunderground v.1.15,2013-10-20 19:57:00,
2013-10-20 16:01:00,58.7,36.8,30.04,WNW,288,4.0,7.0,44,0.00,,,0.00,60,Wunderground v.1.15,2013-10-20 20:01:00,
2013-10-20 16:03:00,58.8,37.5,30.05,West,271,5.0,7.0,45,0.00,,,0.00,47,Wunderground v.1.15,2013-10-20 20:03:00,
2013-10-20 16:05:00,58.8,36.3,30.05,WNW,294,5.0,7.0,43,0.00,,,0.00,46,Wunderground v.1.15,2013-10-20 20:05:00,
2013-10-20 16:06:00,58.7,36.2,30.05,WSW,257,5.0,7.0,43,0.00,,,0.00,46,Wunderground v.1.15,2013-10-20 20:06:00,
2013-10-20 16:09:00,58.4,36.0,30.04,NW,313,5.0,7.0,43,0.00,,,0.00,54,Wunderground v.1.15,2013-10-20 20:09:00,
2013-10-20 16:10:00,58.4,36.0,30.04,WNW,289,4.0,5.0,43,0.00,,,0.00,56,Wunderground v.1.15,2013-10-20 20:10:00,
2013-10-20 16:11:00,58.3,36.5,30.04,NW,318,4.0,5.0,44,0.00,,,0.00,56,Wunderground v.1.15,2013-10-20 20:11:00,
2013-10-20 16:14:00,58.4,37.1,30.04,WNW,295,4.0,5.0,45,0.00,,,0.00,69,Wunderground v.1.15,2013-10-20 20:14:00,
2013-10-20 16:15:00,58.5,37.2,30.04,NW,322,4.0,5.0,45,0.00,,,0.00,72,Wunderground v.1.15,2013-10-20 20:15:00,
2013-10-20 16:18:00,58.6,37.3,30.04,SE,145,3.0,5.0,45,0.00,,,0.00,81,Wunderground v.1.15,2013-10-20 20:18:00,
2013-10-20 16:19:00,58.6,37.3,30.04,ESE,122,3.0,5.0,45,0.00,,,0.00,77,Wunderground v.1.15,2013-10-20 20:19:00,
2013-10-20 16:20:00,58.7,36.8,30.04,WNW,296,3.0,3.0,44,0.00,,,0.00,70,Wunderground v.1.15,2013-10-20 20:20:00,
2013-10-20 16:23:00,58.7,36.8,30.04,West,272,3.0,5.0,44,0.00,,,0.00,47,Wunderground v.1.15,2013-10-20 20:23:00,
2013-10-20 16:24:00,58.7,37.4,30.04,East,95,3.0,5.0,45,0.00,,,0.00,46,Wunderground v.1.15,2013-10-20 20:24:00,
2013-10-20 16:26:00,58.6,36.7,30.04,SE,130,3.0,5.0,44,0.00,,,0.00,40,Wunderground v.1.15,2013-10-20 20:26:00,
2013-10-20 16:28:00,58.6,36.7,30.04,NNW,333,3.0,5.0,44,0.00,,,0.00,44,Wunderground v.1.15,2013-10-20 20:28:00,
2013-10-20 16:32:00,58.6,36.7,30.04,ENE,65,3.0,5.0,44,0.00,,,0.00,40,Wunderground v.1.15,2013-10-20 20:32:00,
2013-10-20 16:34:00,58.6,36.7,30.04,SSW,196,3.0,5.0,44,0.00,,,0.00,40,Wunderground v.1.15,2013-10-20 20:34:00,
2013-10-20 16:35:00,58.6,36.7,30.04,WSW,248,3.0,5.0,44,0.00,,,0.00,42,Wunderground v.1.15,2013-10-20 20:35:00,
2013-10-20 16:37:00,58.6,36.2,30.04,NW,305,3.0,5.0,43,0.00,,,0.00,44,Wunderground v.1.15,2013-10-20 20:37:00,
2013-10-20 16:38:00,58.6,36.7,30.04,West,276,3.0,5.0,44,0.00,,,0.00,44,Wunderground v.1.15,2013-10-20 20:38:00,
2013-10-20 16:41:00,58.6,36.7,30.04,WNW,283,3.0,4.0,44,0.00,,,0.00,44,Wunderground v.1.15,2013-10-20 20:41:00,
2013-10-20 16:43:00,58.7,36.8,30.05,SE,140,3.0,4.0,44,0.00,,,0.00,44,Wunderground v.1.15,2013-10-20 20:43:00,
2013-10-20 16:44:00,58.7,36.8,30.05,SE,128,3.0,6.0,44,0.00,,,0.00,46,Wunderground v.1.15,2013-10-20 20:44:00,
2013-10-20 16:45:00,58.6,36.7,30.05,WNW,296,4.0,6.0,44,0.00,,,0.00,49,Wunderground v.1.15,2013-10-20 20:45:00,
2013-10-20 16:50:00,58.5,36.6,30.05,SE,125,4.0,4.0,44,0.00,,,0.00,46,Wunderground v.1.15,2013-10-20 20:50:00,
2013-10-20 16:51:00,58.5,37.2,30.05,SE,134,4.0,5.0,45,0.00,,,0.00,42,Wunderground v.1.15,2013-10-20 20:51:00,
2013-10-20 16:52:00,58.5,36.6,30.05,SE,139,4.0,7.0,44,0.00,,,0.00,40,Wunderground v.1.15,2013-10-20 20:52:00,
2013-10-20 16:56:00,58.4,36.6,30.05,SE,140,4.0,8.0,44,0.00,,,0.00,39,Wunderground v.1.15,2013-10-20 20:56:00,
2013-10-20 16:58:00,58.4,36.6,30.05,ESE,123,5.0,8.0,44,0.00,,,0.00,39,Wunderground v.1.15,2013-10-20 20:58:00,
2013-10-20 16:59:00,58.3,36.5,30.05,SE,124,5.0,9.0,44,0.00,,,0.00,46,Wunderground v.1.15,2013-10-20 20:59:00,
2013-10-20 17:00:00,58.2,36.4,30.05,ESE,115,5.0,5.0,44,0.00,,,0.00,33,Wunderground v.1.15,2013-10-20 21:00:00,
2013-10-20 17:05:00,58.0,36.8,30.05,SSE,149,6.0,6.0,45,0.00,,,0.00,33,Wunderground v.1.15,2013-10-20 21:05:00,
2013-10-20 17:06:00,58.0,36.8,30.05,SSE,159,6.0,6.0,45,0.00,,,0.00,33,Wunderground v.1.15,2013-10-20 21:06:00,
2013-10-20 17:10:00,58.0,37.3,30.05,ESE,117,5.0,7.0,46,0.00,,,0.00,32,Wunderground v.1.15,2013-10-20 21:10:00,
2013-10-20 17:12:00,57.9,37.2,30.05,SE,128,6.0,7.0,46,0.00,,,0.00,32,Wunderground v.1.15,2013-10-20 21:12:00,
2013-10-20 17:13:00,57.9,37.2,30.05,SE,125,6.0,7.0,46,0.00,,,0.00,32,Wunderground v.1.15,2013-10-20 21:13:00,
2013-10-20 17:17:00,57.9,37.2,30.05,East,101,6.0,7.0,46,0.00,,,0.01,35,Wunderground v.1.15,2013-10-20 21:17:00,
2013-10-20 17:19:00,57.9,37.2,30.05,ESE,117,6.0,7.0,46,0.00,,,0.01,39,Wunderground v.1.15,2013-10-20 21:19:00,
2013-10-20 17:20:00,57.9,37.2,30.05,ESE,123,5.0,5.0,46,0.00,,,0.01,39,Wunderground v.1.15,2013-10-20 21:20:00,
2013-10-20 17:21:00,57.9,37.2,30.05,SE,143,5.0,7.0,46,0.00,,,0.01,40,Wunderground v.1.15,2013-10-20 21:21:00,
2013-10-20 17:24:00,57.8,37.1,30.06,ESE,113,5.0,7.0,46,0.00,,,0.01,44,Wunderground v.1.15,2013-10-20 21:24:00,
2013-10-20 17:25:00,57.7,37.0,30.06,SSE,150,5.0,7.0,46,0.00,,,0.01,46,Wunderground v.1.15,2013-10-20 21:25:00,
2013-10-20 17:27:00,57.7,37.6,30.05,ESE,120,5.0,8.0,47,0.00,,,0.01,51,Wunderground v.1.15,2013-10-20 21:27:00,
2013-10-20 17:31:00,57.5,37.4,30.06,SE,130,5.0,5.0,47,0.00,,,0.01,51,Wunderground v.1.15,2013-10-20 21:31:00,
2013-10-20 17:32:00,57.5,37.9,30.06,ESE,121,5.0,6.0,48,0.00,,,0.01,46,Wunderground v.1.15,2013-10-20 21:32:00,
2013-10-20 17:33:00,57.5,37.9,30.06,ESE,119,5.0,6.0,48,0.00,,,0.01,40,Wunderground v.1.15,2013-10-20 21:33:00,
2013-10-20 17:35:00,57.4,37.9,30.06,SE,130,5.0,6.0,48,0.00,,,0.01,28,Wunderground v.1.15,2013-10-20 21:35:00,
2013-10-20 17:36:00,57.4,37.9,30.06,SE,132,5.0,6.0,48,0.00,,,0.01,26,Wunderground v.1.15,2013-10-20 21:36:00,
2013-10-20 17:37:00,57.4,37.9,30.06,SSE,154,5.0,6.0,48,0.00,,,0.01,26,Wunderground v.1.15,2013-10-20 21:37:00,
2013-10-20 17:41:00,57.3,37.8,30.06,SE,134,4.0,5.0,48,0.00,,,0.01,33,Wunderground v.1.15,2013-10-20 21:41:00,
2013-10-20 17:43:00,57.3,37.8,30.06,SSE,150,4.0,5.0,48,0.00,,,0.01,35,Wunderground v.1.15,2013-10-20 21:43:00,
2013-10-20 17:46:00,57.2,38.2,30.06,SE,129,3.0,5.0,49,0.00,,,0.01,30,Wunderground v.1.15,2013-10-20 21:46:00,
2013-10-20 17:47:00,57.2,38.2,30.06,SSE,157,3.0,5.0,49,0.00,,,0.01,26,Wunderground v.1.15,2013-10-20 21:47:00,
2013-10-20 17:48:00,57.2,38.2,30.06,SE,132,3.0,5.0,49,0.00,,,0.01,25,Wunderground v.1.15,2013-10-20 21:48:00,
2013-10-20 17:49:00,57.1,38.1,30.06,SE,128,3.0,5.0,49,0.00,,,0.01,25,Wunderground v.1.15,2013-10-20 21:49:00,
2013-10-20 17:53:00,57.1,38.1,30.06,SE,128,4.0,5.0,49,0.00,,,0.01,25,Wunderground v.1.15,2013-10-20 21:53:00,
2013-10-20 17:54:00,57.1,38.6,30.06,ESE,106,4.0,5.0,50,0.00,,,0.01,21,Wunderground v.1.15,2013-10-20 21:54:00,
2013-10-20 17:56:00,57.0,38.0,30.06,SE,133,4.0,6.0,49,0.00,,,0.01,19,Wunderground v.1.15,2013-10-20 21:56:00,
2013-10-20 17:57:00,57.0,38.0,30.06,ESE,122,4.0,6.0,49,0.00,,,0.01,18,Wunderground v.1.15,2013-10-20 21:57:00,
2013-10-20 17:59:00,56.9,37.9,30.06,ESE,122,4.0,6.0,49,0.00,,,0.01,14,Wunderground v.1.15,2013-10-20 21:59:00,
2013-10-20 18:04:00,56.8,38.3,30.06,ESE,113,5.0,8.0,50,0.00,,,0.01,12,Wunderground v.1.15,2013-10-20 22:04:00,
2013-10-20 18:05:00,56.8,38.3,30.06,SE,134,5.0,8.0,50,0.00,,,0.01,11,Wunderground v.1.15,2013-10-20 22:05:00,
2013-10-20 18:06:00,56.7,38.3,30.06,SE,131,4.0,8.0,50,0.00,,,0.01,11,Wunderground v.1.15,2013-10-20 22:06:00,
2013-10-20 18:10:00,56.6,38.7,30.06,ESE,110,4.0,4.0,51,0.00,,,0.01,9,Wunderground v.1.15,2013-10-20 22:10:00,
2013-10-20 18:11:00,56.5,38.1,30.06,ESE,120,4.0,4.0,50,0.00,,,0.01,7,Wunderground v.1.15,2013-10-20 22:11:00,
2013-10-20 18:13:00,56.5,38.6,30.06,SE,127,4.0,4.0,51,0.00,,,0.01,5,Wunderground v.1.15,2013-10-20 22:13:00,
2013-10-20 18:17:00,56.3,38.4,30.06,SE,140,4.0,5.0,51,0.00,,,0.01,0,Wunderground v.1.15,2013-10-20 22:17:00,
2013-10-20 18:18:00,56.3,38.4,30.06,ESE,121,4.0,5.0,51,0.00,,,0.01,0,Wunderground v.1.15,2013-10-20 22:18:00,
2013-10-20 18:19:00,56.3,38.4,30.06,SE,139,4.0,5.0,51,0.00,,,0.01,0,Wunderground v.1.15,2013-10-20 22:19:00,
2013-10-20 18:22:00,56.2,38.3,30.06,SE,131,4.0,5.0,51,0.00,,,0.01,0,Wunderground v.1.15,2013-10-20 22:22:00,
2013-10-20 18:23:00,56.2,38.3,30.06,SE,129,4.0,5.0,51,0.00,,,0.01,0,Wunderground v.1.15,2013-10-20 22:23:00,
2013-10-20 18:27:00,56.0,38.6,30.06,SE,138,4.0,5.0,52,0.00,,,0.01,0,Wunderground v.1.15,2013-10-20 22:27:00,
2013-10-20 18:30:00,55.8,38.4,30.06,SE,129,3.0,3.0,52,0.00,,,0.01,0,Wunderground v.1.15,2013-10-20 22:30:00,
2013-10-20 18:31:00,55.8,38.9,30.06,SE,128,3.0,3.0,53,0.00,,,0.01,0,Wunderground v.1.15,2013-10-20 22:31:00,
2013-10-20 18:33:00,55.7,38.8,30.06,SE,129,2.0,3.0,53,0.00,,,0.01,0,Wunderground v.1.15,2013-10-20 22:33:00,
2013-10-20 18:34:00,55.6,38.7,30.06,SE,129,2.0,3.0,53,0.00,,,0.01,0,Wunderground v.1.15,2013-10-20 22:34:00,
2013-10-20 18:37:00,55.4,39.0,30.06,SE,129,2.0,3.0,54,0.00,,,0.01,0,Wunderground v.1.15,2013-10-20 22:37:00,
2013-10-20 18:40:00,55.2,38.8,30.07,SE,137,1.0,1.0,54,0.00,,,0.01,0,Wunderground v.1.15,2013-10-20 22:40:00,
2013-10-20 18:41:00,55.1,38.7,30.07,SE,128,1.0,3.0,54,0.00,,,0.01,0,Wunderground v.1.15,2013-10-20 22:41:00,
2013-10-20 18:42:00,55.1,38.7,30.07,SE,134,1.0,3.0,54,0.00,,,0.01,0,Wunderground v.1.15,2013-10-20 22:42:00,
2013-10-20 18:43:00,55.1,38.7,30.07,SE,134,1.0,3.0,54,0.00,,,0.01,0,Wunderground v.1.15,2013-10-20 22:43:00,
2013-10-20 18:46:00,55.0,39.1,30.07,SE,140,1.0,3.0,55,0.00,,,0.01,0,Wunderground v.1.15,2013-10-20 22:46:00,
2013-10-20 18:48:00,55.0,39.1,30.07,SE,133,1.0,3.0,55,0.00,,,0.01,0,Wunderground v.1.15,2013-10-20 22:48:00,
2013-10-20 18:49:00,55.0,39.1,30.07,SE,132,2.0,3.0,55,0.00,,,0.01,0,Wunderground v.1.15,2013-10-20 22:49:00,
2013-10-20 18:50:00,55.0,38.6,30.07,SE,133,2.0,2.0,54,0.00,,,0.01,0,Wunderground v.1.15,2013-10-20 22:50:00,
2013-10-20 18:52:00,55.0,38.6,30.07,SE,133,2.0,4.0,54,0.00,,,0.01,0,Wunderground v.1.15,2013-10-20 22:52:00,
2013-10-20 18:56:00,54.9,38.6,30.07,SE,142,2.0,4.0,54,0.00,,,0.01,0,Wunderground v.1.15,2013-10-20 22:56:00,
2013-10-20 18:57:00,54.9,38.6,30.07,SE,128,2.0,4.0,54,0.00,,,0.01,0,Wunderground v.1.15,2013-10-20 22:57:00,
2013-10-20 18:58:00,54.9,38.6,30.07,SE,127,2.0,4.0,54,0.00,,,0.01,0,Wunderground v.1.15,2013-10-20 22:58:00,
2013-10-20 19:01:00,54.8,38.5,30.07,SE,132,2.0,2.0,54,0.00,,,0.01,0,Wunderground v.1.15,2013-10-20 23:01:00,
2013-10-20 19:02:00,54.8,38.5,30.07,SSE,152,2.0,4.0,54,0.00,,,0.01,0,Wunderground v.1.15,2013-10-20 23:02:00,
2013-10-20 19:04:00,54.7,38.4,30.07,SE,125,2.0,4.0,54,0.00,,,0.01,0,Wunderground v.1.15,2013-10-20 23:04:00,
2013-10-20 19:06:00,54.7,38.4,30.07,SE,132,2.0,4.0,54,0.00,,,0.01,0,Wunderground v.1.15,2013-10-20 23:06:00,
2013-10-20 19:08:00,54.7,38.4,30.07,ESE,119,2.0,4.0,54,0.00,,,0.01,0,Wunderground v.1.15,2013-10-20 23:08:00,
2013-10-20 19:09:00,54.7,38.4,30.07,ESE,121,2.0,4.0,54,0.00,,,0.01,0,Wunderground v.1.15,2013-10-20 23:09:00,
2013-10-20 19:14:00,54.4,38.6,30.07,SW,228,1.0,2.0,55,0.00,,,0.01,0,Wunderground v.1.15,2013-10-20 23:14:00,
2013-10-20 19:15:00,54.4,38.6,30.07,SW,228,1.0,2.0,55,0.00,,,0.01,0,Wunderground v.1.15,2013-10-20 23:15:00,
2013-10-20 19:18:00,54.2,38.4,30.07,SE,137,1.0,2.0,55,0.00,,,0.01,0,Wunderground v.1.15,2013-10-20 23:18:00,
2013-10-20 19:20:00,54.1,38.7,30.07,West,262,1.0,1.0,56,0.00,,,0.01,0,Wunderground v.1.15,2013-10-20 23:20:00,
2013-10-20 19:22:00,54.0,38.6,30.07,West,262,1.0,1.0,56,0.00,,,0.01,0,Wunderground v.1.15,2013-10-20 23:22:00,
2013-10-20 19:23:00,53.9,38.6,30.07,SE,144,0.0,1.0,56,0.00,,,0.01,0,Wunderground v.1.15,2013-10-20 23:23:00,
2013-10-20 19:27:00,53.7,38.4,30.08,SSE,147,0.0,1.0,56,0.00,,,0.01,0,Wunderground v.1.15,2013-10-20 23:27:00,
2013-10-20 19:28:00,53.7,38.4,30.08,SSE,147,0.0,1.0,56,0.00,,,0.01,0,Wunderground v.1.15,2013-10-20 23:28:00,
2013-10-20 19:32:00,53.5,38.2,30.08,West,262,0.0,2.0,56,0.00,,,0.01,0,Wunderground v.1.15,2013-10-20 23:32:00,
2013-10-20 19:34:00,53.4,38.5,30.08,SSE,149,0.0,2.0,57,0.00,,,0.01,0,Wunderground v.1.15,2013-10-20 23:34:00,
2013-10-20 19:35:00,53.4,38.5,30.08,SE,143,0.0,2.0,57,0.00,,,0.01,0,Wunderground v.1.15,2013-10-20 23:35:00,
2013-10-20 19:37:00,53.3,38.0,30.08,ESE,123,0.0,4.0,56,0.00,,,0.01,0,Wunderground v.1.15,2013-10-20 23:37:00,
2013-10-20 19:38:00,53.3,38.0,30.08,ESE,123,1.0,4.0,56,0.00,,,0.01,0,Wunderground v.1.15,2013-10-20 23:38:00,
2013-10-20 19:41:00,53.5,38.2,30.08,SE,128,1.0,2.0,56,0.00,,,0.01,0,Wunderground v.1.15,2013-10-20 23:41:00,
2013-10-20 19:45:00,53.4,38.5,30.08,SSE,154,1.0,2.0,57,0.00,,,0.01,0,Wunderground v.1.15,2013-10-20 23:45:00,
2013-10-20 19:46:00,53.4,38.5,30.08,SSE,154,1.0,2.0,57,0.00,,,0.01,0,Wunderground v.1.15,2013-10-20 23:46:00,
2013-10-20 19:47:00,53.3,38.4,30.08,South,176,1.0,2.0,57,0.00,,,0.01,0,Wunderground v.1.15,2013-10-20 23:47:00,
2013-10-20 19:49:00,53.2,38.8,30.08,SSW,205,1.0,2.0,58,0.00,,,0.01,0,Wunderground v.1.15,2013-10-20 23:49:00,
2013-10-20 19:51:00,53.1,38.7,30.08,WSW,248,1.0,1.0,58,0.00,,,0.01,0,Wunderground v.1.15,2013-10-20 23:51:00,
2013-10-20 19:53:00,52.9,39.0,30.08,WNW,295,1.0,1.0,59,0.00,,,0.01,0,Wunderground v.1.15,2013-10-20 23:53:00,
2013-10-20 19:54:00,52.8,38.9,30.08,WNW,295,1.0,1.0,59,0.00,,,0.01,0,Wunderground v.1.15,2013-10-20 23:54:00,
2013-10-20 19:55:00,52.7,38.8,30.08,WNW,294,1.0,1.0,59,0.00,,,0.01,0,Wunderground v.1.15,2013-10-20 23:55:00,
2013-10-20 19:57:00,52.5,38.6,30.09,NW,319,1.0,1.0,59,0.00,,,0.01,0,Wunderground v.1.15,2013-10-20 23:57:00,
2013-10-20 19:59:00,52.4,38.9,30.09,NW,321,1.0,1.0,60,0.00,,,0.01,0,Wunderground v.1.15,2013-10-20 23:59:00,
2013-10-20 20:01:00,52.2,38.7,30.09,NW,325,1.0,1.0,60,0.00,,,0.01,0,Wunderground v.1.15,2013-10-21 00:01:00,
2013-10-20 20:03:00,52.0,38.5,30.09,NW,319,1.0,1.0,60,0.00,,,0.01,0,Wunderground v.1.15,2013-10-21 00:03:00,
2013-10-20 20:06:00,51.7,38.7,30.09,NW,319,1.0,1.0,61,0.00,,,0.01,0,Wunderground v.1.15,2013-10-21 00:06:00,
2013-10-20 20:07:00,51.6,38.6,30.09,NW,319,1.0,1.0,61,0.00,,,0.01,0,Wunderground v.1.15,2013-10-21 00:07:00,
2013-10-20 20:09:00,51.5,38.5,30.09,NW,319,1.0,1.0,61,0.00,,,0.01,0,Wunderground v.1.15,2013-10-21 00:09:00,
2013-10-20 20:10:00,51.4,38.4,30.09,NW,319,0.0,0.0,61,0.00,,,0.01,0,Wunderground v.1.15,2013-10-21 00:10:00,
2013-10-20 20:11:00,51.4,38.4,30.09,NW,319,0.0,0.0,61,0.00,,,0.01,0,Wunderground v.1.15,2013-10-21 00:11:00,
2013-10-20 20:12:00,51.3,38.3,30.09,NW,325,0.0,1.0,61,0.00,,,0.01,0,Wunderground v.1.15,2013-10-21 00:12:00,
2013-10-20 20:13:00,51.2,38.2,30.09,NW,325,0.0,1.0,61,0.00,,,0.01,0,Wunderground v.1.15,2013-10-21 00:13:00,
2013-10-20 20:14:00,51.2,38.6,30.09,NW,325,0.0,1.0,62,0.00,,,0.01,0,Wunderground v.1.15,2013-10-21 00:14:00,
2013-10-20 20:15:00,51.2,38.6,30.09,NW,325,0.0,1.0,62,0.00,,,0.01,0,Wunderground v.1.15,2013-10-21 00:15:00,
2013-10-20 20:19:00,51.1,38.1,30.09,NW,311,0.0,1.0,61,0.00,,,0.01,0,Wunderground v.1.15,2013-10-21 00:19:00,
2013-10-20 20:20:00,51.1,38.1,30.09,WNW,298,0.0,0.0,61,0.00,,,0.01,0,Wunderground v.1.15,2013-10-21 00:20:00,
2013-10-20 20:21:00,51.1,38.1,30.09,West,281,0.0,0.0,61,0.00,,,0.01,0,Wunderground v.1.15,2013-10-21 00:21:00,
2013-10-20 20:22:00,51.2,38.2,30.09,West,278,0.0,0.0,61,0.00,,,0.01,0,Wunderground v.1.15,2013-10-21 00:22:00,
2013-10-20 20:24:00,51.2,38.2,30.09,West,278,0.0,0.0,61,0.00,,,0.01,0,Wunderground v.1.15,2013-10-21 00:24:00,
2013-10-20 20:28:00,51.3,38.3,30.09,West,278,0.0,0.0,61,0.00,,,0.01,0,Wunderground v.1.15,2013-10-21 00:28:00,
2013-10-20 20:29:00,51.3,38.3,30.09,West,278,0.0,0.0,61,0.00,,,0.01,0,Wunderground v.1.15,2013-10-21 00:29:00,
2013-10-20 20:31:00,51.3,37.9,30.09,West,278,0.0,0.0,60,0.00,,,0.01,0,Wunderground v.1.15,2013-10-21 00:31:00,
2013-10-20 20:32:00,51.4,38.4,30.09,West,278,0.0,0.0,61,0.00,,,0.01,0,Wunderground v.1.15,2013-10-21 00:32:00,
2013-10-20 20:34:00,51.3,37.9,30.09,West,278,0.0,0.0,60,0.00,,,0.01,0,Wunderground v.1.15,2013-10-21 00:34:00,
2013-10-20 20:35:00,51.3,37.9,30.09,West,278,0.0,0.0,60,0.00,,,0.01,0,Wunderground v.1.15,2013-10-21 00:35:00,
2013-10-20 20:39:00,51.3,38.3,30.10,West,278,0.0,0.0,61,0.00,,,0.01,0,Wunderground v.1.15,2013-10-21 00:39:00,
2013-10-20 20:40:00,51.3,38.3,30.10,West,278,0.0,0.0,61,0.00,,,0.01,0,Wunderground v.1.15,2013-10-21 00:40:00,
2013-10-20 20:41:00,51.2,38.2,30.10,West,278,0.0,0.0,61,0.00,,,0.01,0,Wunderground v.1.15,2013-10-21 00:41:00,
2013-10-20 20:42:00,51.2,38.2,30.10,West,278,0.0,0.0,61,0.00,,,0.01,0,Wunderground v.1.15,2013-10-21 00:42:00,
2013-10-20 20:44:00,51.1,38.5,30.10,West,278,0.0,0.0,62,0.00,,,0.01,0,Wunderground v.1.15,2013-10-21 00:44:00,
2013-10-20 20:48:00,50.9,38.3,30.10,West,281,0.0,0.0,62,0.00,,,0.01,0,Wunderground v.1.15,2013-10-21 00:48:00,
2013-10-20 20:50:00,50.8,38.2,30.10,West,281,0.0,0.0,62,0.00,,,0.01,0,Wunderground v.1.15,2013-10-21 00:50:00,
2013-10-20 20:51:00,50.7,38.6,30.10,West,281,0.0,0.0,63,0.00,,,0.01,0,Wunderground v.1.15,2013-10-21 00:51:00,
2013-10-20 20:54:00,50.6,38.1,30.10,WNW,284,0.0,0.0,62,0.00,,,0.01,0,Wunderground v.1.15,2013-10-21 00:54:00,
2013-10-20 20:55:00,50.5,38.0,30.10,WNW,284,0.0,0.0,62,0.00,,,0.01,0,Wunderground v.1.15,2013-10-21 00:55:00,
2013-10-20 20:56:00,50.5,38.0,30.10,WNW,284,0.0,0.0,62,0.00,,,0.01,0,Wunderground v.1.15,2013-10-21 00:56:00,
2013-10-20 20:57:00,50.5,38.0,30.10,WNW,284,0.0,0.0,62,0.00,,,0.01,0,Wunderground v.1.15,2013-10-21 00:57:00,
2013-10-20 21:00:00,50.5,38.0,30.10,WNW,284,0.0,0.0,62,0.00,,,0.01,0,Wunderground v.1.15,2013-10-21 01:00:00,
2013-10-20 21:01:00,50.5,38.0,30.10,WNW,284,0.0,0.0,62,0.00,,,0.01,0,Wunderground v.1.15,2013-10-21 01:01:00,
2013-10-20 21:02:00,50.4,38.3,30.10,SSE,156,0.0,0.0,63,0.00,,,0.01,0,Wunderground v.1.15,2013-10-21 01:02:00,
2013-10-20 21:03:00,50.4,37.9,30.10,SE,143,0.0,0.0,62,0.00,,,0.01,0,Wunderground v.1.15,2013-10-21 01:03:00,
2013-10-20 21:06:00,50.5,38.4,30.10,SE,143,0.0,0.0,63,0.00,,,0.01,0,Wunderground v.1.15,2013-10-21 01:06:00,
2013-10-20 21:07:00,50.5,38.4,30.10,SE,143,0.0,0.0,63,0.00,,,0.01,0,Wunderground v.1.15,2013-10-21 01:07:00,
2013-10-20 21:09:00,50.5,38.4,30.10,SSE,156,0.0,0.0,63,0.00,,,0.01,0,Wunderground v.1.15,2013-10-21 01:09:00,
2013-10-20 21:10:00,50.4,38.3,30.10,SW,223,0.0,0.0,63,0.00,,,0.01,0,Wunderground v.1.15,2013-10-21 01:10:00,
2013-10-20 21:11:00,50.4,38.3,30.11,West,261,0.0,0.0,63,0.00,,,0.01,0,Wunderground v.1.15,2013-10-21 01:11:00,
2013-10-20 21:12:00,50.4,38.3,30.10,West,268,0.0,0.0,63,0.00,,,0.01,0,Wunderground v.1.15,2013-10-21 01:12:00,
2013-10-20 21:15:00,50.3,38.6,30.11,West,271,0.0,0.0,64,0.00,,,0.01,0,Wunderground v.1.15,2013-10-21 01:15:00,
2013-10-20 21:16:00,50.2,38.9,30.10,West,271,0.0,0.0,65,0.00,,,0.01,0,Wunderground v.1.15,2013-10-21 01:16:00,
2013-10-20 21:19:00,50.0,38.7,30.10,NW,311,0.0,0.0,65,0.00,,,0.01,0,Wunderground v.1.15,2013-10-21 01:19:00,
2013-10-20 21:20:00,49.9,38.6,30.10,NW,311,0.0,0.0,65,0.00,,,0.01,0,Wunderground v.1.15,2013-10-21 01:20:00,
2013-10-20 21:22:00,49.8,38.5,30.11,NW,311,0.0,0.0,65,0.00,,,0.01,0,Wunderground v.1.15,2013-10-21 01:22:00,
2013-10-20 21:24:00,49.7,38.8,30.11,West,279,0.0,0.0,66,0.00,,,0.01,0,Wunderground v.1.15,2013-10-21 01:24:00,
2013-10-20 21:25:00,49.6,38.3,30.11,West,279,0.0,0.0,65,0.00,,,0.01,0,Wunderground v.1.15,2013-10-21 01:25:00,
2013-10-20 21:27:00,49.6,38.3,30.11,West,264,0.0,0.0,65,0.00,,,0.01,0,Wunderground v.1.15,2013-10-21 01:27:00,
2013-10-20 21:30:00,49.6,38.3,30.11,WNW,296,0.0,0.0,65,0.00,,,0.01,0,Wunderground v.1.15,2013-10-21 01:30:00,
2013-10-20 21:31:00,49.6,38.7,30.11,WNW,296,0.0,0.0,66,0.00,,,0.01,0,Wunderground v.1.15,2013-10-21 01:31:00,
2013-10-20 21:34:00,49.5,38.6,30.11,WNW,296,0.0,1.0,66,0.00,,,0.01,0,Wunderground v.1.15,2013-10-21 01:34:00,
2013-10-20 21:37:00,49.3,38.4,30.12,WNW,296,1.0,1.0,66,0.00,,,0.01,0,Wunderground v.1.15,2013-10-21 01:37:00,
2013-10-20 21:38:00,49.3,38.4,30.12,WNW,296,1.0,1.0,66,0.00,,,0.01,0,Wunderground v.1.15,2013-10-21 01:38:00,
2013-10-20 21:39:00,49.2,38.7,30.12,WNW,296,1.0,1.0,67,0.00,,,0.01,0,Wunderground v.1.15,2013-10-21 01:39:00,
2013-10-20 21:42:00,49.0,38.5,30.12,WNW,296,1.0,2.0,67,0.00,,,0.01,0,Wunderground v.1.15,2013-10-21 01:42:00,
2013-10-20 21:43:00,48.9,38.4,30.12,WNW,296,1.0,2.0,67,0.00,,,0.01,0,Wunderground v.1.15,2013-10-21 01:43:00,
2013-10-20 21:45:00,48.8,38.3,30.12,NW,304,1.0,2.0,67,0.00,,,0.01,0,Wunderground v.1.15,2013-10-21 01:45:00,
2013-10-20 21:46:00,48.8,38.3,30.12,North,355,1.0,2.0,67,0.00,,,0.01,0,Wunderground v.1.15,2013-10-21 01:46:00,
2013-10-20 21:51:00,48.8,38.3,30.12,North,350,0.0,0.0,67,0.00,,,0.01,0,Wunderground v.1.15,2013-10-21 01:51:00,
2013-10-20 21:52:00,48.8,38.3,30.12,NNW,342,0.0,0.0,67,0.00,,,0.01,0,Wunderground v.1.15,2013-10-21 01:52:00,
2013-10-20 21:53:00,48.8,38.3,30.12,NNW,342,0.0,0.0,67,0.00,,,0.01,0,Wunderground v.1.15,2013-10-21 01:53:00,
2013-10-20 21:54:00,48.8,38.3,30.12,NNW,342,0.0,0.0,67,0.00,,,0.01,0,Wunderground v.1.15,2013-10-21 01:54:00,
2013-10-20 21:57:00,48.7,38.2,30.12,NNW,342,0.0,0.0,67,0.00,,,0.01,0,Wunderground v.1.15,2013-10-21 01:57:00,
2013-10-20 21:58:00,48.7,38.2,30.12,NNW,342,0.0,0.0,67,0.00,,,0.01,0,Wunderground v.1.15,2013-10-21 01:58:00,
2013-10-20 21:59:00,48.7,38.2,30.12,NNW,342,0.0,0.0,67,0.00,,,0.01,0,Wunderground v.1.15,2013-10-21 01:59:00,
2013-10-20 22:00:00,48.7,38.6,30.12,NNW,342,0.0,0.0,68,0.00,,,0.01,0,Wunderground v.1.15,2013-10-21 02:00:00,
2013-10-20 22:03:00,48.6,38.5,30.12,NNW,342,0.0,0.0,68,0.00,,,0.01,0,Wunderground v.1.15,2013-10-21 02:03:00,
2013-10-20 22:06:00,48.5,38.4,30.12,NNW,342,0.0,0.0,68,0.00,,,0.01,0,Wunderground v.1.15,2013-10-21 02:06:00,
2013-10-20 22:08:00,48.5,38.4,30.12,NNW,342,0.0,0.0,68,0.00,,,0.01,0,Wunderground v.1.15,2013-10-21 02:08:00,
2013-10-20 22:10:00,48.4,38.3,30.12,NNW,342,0.0,0.0,68,0.00,,,0.01,0,Wunderground v.1.15,2013-10-21 02:10:00,
2013-10-20 22:11:00,48.4,38.3,30.13,NNW,342,0.0,0.0,68,0.00,,,0.01,0,Wunderground v.1.15,2013-10-21 02:11:00,
2013-10-20 22:13:00,48.3,38.2,30.13,NNW,342,0.0,0.0,68,0.00,,,0.01,0,Wunderground v.1.15,2013-10-21 02:13:00,
2013-10-20 22:16:00,48.2,38.5,30.13,NNW,342,0.0,0.0,69,0.00,,,0.01,0,Wunderground v.1.15,2013-10-21 02:16:00,
2013-10-20 22:17:00,48.1,38.4,30.13,NNW,342,0.0,0.0,69,0.00,,,0.01,0,Wunderground v.1.15,2013-10-21 02:17:00,
2013-10-20 22:19:00,48.0,38.7,30.13,NNW,342,0.0,0.0,70,0.00,,,0.01,0,Wunderground v.1.15,2013-10-21 02:19:00,
2013-10-20 22:21:00,47.9,38.6,30.13,NNW,342,0.0,0.0,70,0.00,,,0.01,0,Wunderground v.1.15,2013-10-21 02:21:00,
2013-10-20 22:23:00,47.8,38.5,30.13,NNW,342,0.0,0.0,70,0.00,,,0.01,0,Wunderground v.1.15,2013-10-21 02:23:00,
2013-10-20 22:24:00,47.7,38.4,30.13,NNW,342,0.0,0.0,70,0.00,,,0.01,0,Wunderground v.1.15,2013-10-21 02:24:00,
2013-10-20 22:25:00,47.7,38.4,30.13,NNW,342,0.0,0.0,70,0.00,,,0.01,0,Wunderground v.1.15,2013-10-21 02:25:00,
2013-10-20 22:26:00,47.6,38.3,30.13,NNW,342,0.0,0.0,70,0.00,,,0.01,0,Wunderground v.1.15,2013-10-21 02:26:00,
2013-10-20 22:28:00,47.5,38.6,30.13,NNW,342,0.0,0.0,71,0.00,,,0.01,0,Wunderground v.1.15,2013-10-21 02:28:00,
2013-10-20 22:31:00,47.3,38.4,30.13,NNW,342,0.0,0.0,71,0.00,,,0.01,0,Wunderground v.1.15,2013-10-21 02:31:00,
2013-10-20 22:32:00,47.3,38.4,30.13,NNW,342,0.0,0.0,71,0.00,,,0.01,0,Wunderground v.1.15,2013-10-21 02:32:00,
2013-10-20 22:33:00,47.2,38.3,30.13,ENE,60,0.0,0.0,71,0.00,,,0.01,0,Wunderground v.1.15,2013-10-21 02:33:00,
2013-10-20 22:34:00,47.2,38.6,30.13,SE,143,0.0,0.0,72,0.00,,,0.01,0,Wunderground v.1.15,2013-10-21 02:34:00,
2013-10-20 22:35:00,47.1,38.5,30.13,SE,143,0.0,0.0,72,0.00,,,0.01,0,Wunderground v.1.15,2013-10-21 02:35:00,
2013-10-20 22:40:00,47.0,38.4,30.13,SE,143,0.0,0.0,72,0.00,,,0.01,0,Wunderground v.1.15,2013-10-21 02:40:00,
2013-10-20 22:41:00,46.9,38.3,30.13,SE,143,0.0,0.0,72,0.00,,,0.01,0,Wunderground v.1.15,2013-10-21 02:41:00,
2013-10-20 22:44:00,46.9,38.7,30.13,SE,143,0.0,0.0,73,0.00,,,0.01,0,Wunderground v.1.15,2013-10-21 02:44:00,
2013-10-20 22:46:00,46.8,38.6,30.13,SE,143,0.0,0.0,73,0.00,,,0.01,0,Wunderground v.1.15,2013-10-21 02:46:00,
2013-10-20 22:47:00,46.7,38.5,30.13,SE,143,0.0,0.0,73,0.00,,,0.01,0,Wunderground v.1.15,2013-10-21 02:47:00,
2013-10-20 22:48:00,46.7,38.9,30.13,SE,143,0.0,0.0,74,0.00,,,0.01,0,Wunderground v.1.15,2013-10-21 02:48:00,
2013-10-20 22:49:00,46.6,38.8,30.13,SE,143,0.0,0.0,74,0.00,,,0.01,0,Wunderground v.1.15,2013-10-21 02:49:00,
2013-10-20 22:51:00,46.5,38.7,30.13,SE,143,0.0,0.0,74,0.00,,,0.01,0,Wunderground v.1.15,2013-10-21 02:51:00,
2013-10-20 22:53:00,46.4,38.9,30.13,SE,143,0.0,0.0,75,0.00,,,0.01,0,Wunderground v.1.15,2013-10-21 02:53:00,
2013-10-20 22:55:00,46.3,38.8,30.13,SE,143,0.0,0.0,75,0.00,,,0.01,0,Wunderground v.1.15,2013-10-21 02:55:00,
2013-10-20 22:57:00,46.2,38.7,30.13,SE,143,0.0,0.0,75,0.00,,,0.01,0,Wunderground v.1.15,2013-10-21 02:57:00,
2013-10-20 22:58:00,46.2,38.7,30.13,SE,143,0.0,0.0,75,0.00,,,0.01,0,Wunderground v.1.15,2013-10-21 02:58:00,
2013-10-20 23:00:00,46.1,38.6,30.13,SE,143,0.0,0.0,75,0.00,,,0.01,0,Wunderground v.1.15,2013-10-21 03:00:00,
2013-10-20 23:02:00,46.1,38.6,30.13,SE,143,0.0,0.0,75,0.00,,,0.01,0,Wunderground v.1.15,2013-10-21 03:02:00,
2013-10-20 23:03:00,46.0,38.5,30.13,ESE,122,0.0,4.0,75,0.00,,,0.01,0,Wunderground v.1.15,2013-10-21 03:03:00,
2013-10-20 23:04:00,46.0,38.5,30.13,SSE,153,0.0,4.0,75,0.00,,,0.01,0,Wunderground v.1.15,2013-10-21 03:04:00,
2013-10-20 23:06:00,46.0,38.9,30.13,SSE,154,1.0,4.0,76,0.00,,,0.01,0,Wunderground v.1.15,2013-10-21 03:06:00,
2013-10-20 23:08:00,45.9,38.8,30.13,SSE,147,1.0,4.0,76,0.00,,,0.01,0,Wunderground v.1.15,2013-10-21 03:08:00,
2013-10-20 23:09:00,45.8,38.7,30.13,SSE,147,1.0,4.0,76,0.00,,,0.01,0,Wunderground v.1.15,2013-10-21 03:09:00,
2013-10-20 23:10:00,45.8,38.7,30.13,SSE,147,1.0,1.0,76,0.00,,,0.01,0,Wunderground v.1.15,2013-10-21 03:10:00,
2013-10-20 23:11:00,45.7,38.6,30.13,SSE,147,1.0,1.0,76,0.00,,,0.01,0,Wunderground v.1.15,2013-10-21 03:11:00,
2013-10-20 23:13:00,45.6,38.5,30.13,SSE,147,1.0,1.0,76,0.00,,,0.01,0,Wunderground v.1.15,2013-10-21 03:13:00,
2013-10-20 23:15:00,45.6,38.8,30.13,SSE,147,1.0,1.0,77,0.00,,,0.01,0,Wunderground v.1.15,2013-10-21 03:15:00,
2013-10-20 23:16:00,45.6,38.8,30.13,SSE,147,0.0,1.0,77,0.00,,,0.01,0,Wunderground v.1.15,2013-10-21 03:16:00,
2013-10-20 23:20:00,45.4,38.6,30.13,SSE,147,0.0,0.0,77,0.00,,,0.01,0,Wunderground v.1.15,2013-10-21 03:20:00,
2013-10-20 23:21:00,45.4,38.6,30.13,SSE,147,0.0,0.0,77,0.00,,,0.01,0,Wunderground v.1.15,2013-10-21 03:21:00,
2013-10-20 23:22:00,45.3,38.5,30.13,SSE,147,0.0,0.0,77,0.00,,,0.01,0,Wunderground v.1.15,2013-10-21 03:22:00,
2013-10-20 23:23:00,45.3,38.8,30.13,SSE,147,0.0,0.0,78,0.00,,,0.01,0,Wunderground v.1.15,2013-10-21 03:23:00,
2013-10-20 23:24:00,45.2,38.7,30.13,South,190,0.0,0.0,78,0.00,,,0.01,0,Wunderground v.1.15,2013-10-21 03:24:00,
2013-10-20 23:30:00,45.0,38.6,30.13,West,261,0.0,0.0,78,0.00,,,0.01,0,Wunderground v.1.15,2013-10-21 03:30:00,
2013-10-20 23:32:00,44.9,38.5,30.13,West,263,0.0,0.0,78,0.00,,,0.01,0,Wunderground v.1.15,2013-10-21 03:32:00,
2013-10-20 23:34:00,44.9,38.5,30.13,West,263,0.0,0.0,78,0.00,,,0.01,0,Wunderground v.1.15,2013-10-21 03:34:00,
2013-10-20 23:35:00,44.9,38.5,30.13,West,263,0.0,0.0,78,0.00,,,0.01,0,Wunderground v.1.15,2013-10-21 03:35:00,
2013-10-20 23:37:00,44.8,38.4,30.13,West,263,0.0,0.0,78,0.00,,,0.01,0,Wunderground v.1.15,2013-10-21 03:37:00,
2013-10-20 23:40:00,44.8,38.7,30.13,West,263,0.0,0.0,79,0.00,,,0.01,0,Wunderground v.1.15,2013-10-21 03:40:00,
2013-10-20 23:41:00,44.7,38.3,30.13,West,263,0.0,0.0,78,0.00,,,0.01,0,Wunderground v.1.15,2013-10-21 03:41:00,
2013-10-20 23:43:00,44.7,38.3,30.13,West,263,0.0,0.0,78,0.00,,,0.01,0,Wunderground v.1.15,2013-10-21 03:43:00,
2013-10-20 23:45:00,44.7,38.3,30.13,West,263,0.0,0.0,78,0.00,,,0.01,0,Wunderground v.1.15,2013-10-21 03:45:00,
2013-10-20 23:46:00,44.6,38.5,30.13,West,263,0.0,0.0,79,0.00,,,0.01,0,Wunderground v.1.15,2013-10-21 03:46:00,
2013-10-20 23:48:00,44.6,38.5,30.13,West,263,0.0,0.0,79,0.00,,,0.01,0,Wunderground v.1.15,2013-10-21 03:48:00,
2013-10-20 23:50:00,44.6,38.5,30.13,West,263,0.0,0.0,79,0.00,,,0.01,0,Wunderground v.1.15,2013-10-21 03:50:00,
2013-10-20 23:51:00,44.5,38.4,30.13,West,263,0.0,0.0,79,0.00,,,0.01,0,Wunderground v.1.15,2013-10-21 03:51:00,
2013-10-20 23:52:00,44.5,38.7,30.13,West,263,0.0,0.0,80,0.00,,,0.01,0,Wunderground v.1.15,2013-10-21 03:52:00,
2013-10-20 23:53:00,44.5,38.7,30.13,West,263,0.0,0.0,80,0.00,,,0.01,0,Wunderground v.1.15,2013-10-21 03:53:00,
2013-10-20 23:54:00,44.5,38.7,30.13,West,263,0.0,0.0,80,0.00,,,0.01,0,Wunderground v.1.15,2013-10-21 03:54:00,
2013-10-20 23:57:00,44.4,38.6,30.13,West,263,0.0,0.0,80,0.00,,,0.01,0,Wunderground v.1.15,2013-10-21 03:57:00,
2013-10-20 23:58:00,44.3,38.8,30.13,SSW,201,0.0,0.0,81,0.00,,,0.01,0,Wunderground v.1.15,2013-10-21 03:58:00,
2013-10-20 23:59:00,44.4,38.9,30.13,South,182,0.0,0.0,81,0.00,,,0.01,0,Wunderground v.1.15,2013-10-21 03:59:00,